Time,TemperatureF,DewpointF,PressureIn,WindDirection,WindDirectionDegrees,WindSpeedMPH,WindSpeedGustMPH,Humidity,HourlyPrecipIn,Conditions,Clouds,dailyrainin,SoftwareType,DateUTC
2013-04-23 00:00:00,53.2,42.2,30.25,NE,49,5.0,16.0,66,0.00,,---,0.00,VWS V13.01,2013-04-23 04:00:00,
2013-04-23 00:01:00,53.2,42.2,30.25,NE,36,2.0,16.0,66,0.00,,---,0.00,VWS V13.01,2013-04-23 04:01:00,
2013-04-23 00:06:00,53.2,42.2,30.25,East,90,5.0,15.0,66,0.00,,---,0.00,VWS V13.01,2013-04-23 04:06:00,
2013-04-23 00:11:00,53.1,42.1,30.25,ENE,62,3.0,15.0,66,0.00,,---,0.00,VWS V13.01,2013-04-23 04:11:00,
2013-04-23 00:12:00,53.1,42.1,30.25,SE,132,4.0,15.0,66,0.00,,---,0.00,VWS V13.01,2013-04-23 04:12:00,
2013-04-23 00:16:00,53.0,42.0,30.25,NE,45,0.0,15.0,66,0.00,,---,0.00,VWS V13.01,2013-04-23 04:16:00,
2013-04-23 00:17:00,53.0,42.3,30.25,NE,49,0.0,15.0,67,0.00,,---,0.00,VWS V13.01,2013-04-23 04:17:00,
2013-04-23 00:21:00,53.0,42.3,30.25,ENE,61,0.0,15.0,67,0.00,,---,0.00,VWS V13.01,2013-04-23 04:21:00,
2013-04-23 00:22:00,53.0,42.3,30.25,ENE,61,0.0,15.0,67,0.00,,---,0.00,VWS V13.01,2013-04-23 04:22:00,
2013-04-23 00:26:00,52.9,42.3,30.25,ENE,61,0.0,15.0,67,0.00,,---,0.00,VWS V13.01,2013-04-23 04:26:00,
2013-04-23 00:27:00,52.9,42.3,30.25,ENE,61,0.0,15.0,67,0.00,,---,0.00,VWS V13.01,2013-04-23 04:27:00,
2013-04-23 00:31:00,52.9,42.3,30.25,NE,43,0.0,0.0,67,0.00,,---,0.00,VWS V13.01,2013-04-23 04:31:00,
2013-04-23 00:32:00,52.9,42.3,30.25,NE,43,0.0,0.0,67,0.00,,---,0.00,VWS V13.01,2013-04-23 04:32:00,
2013-04-23 00:36:00,52.8,42.2,30.24,ENE,57,3.0,9.0,67,0.00,,---,0.00,VWS V13.01,2013-04-23 04:36:00,
2013-04-23 00:37:00,52.8,42.2,30.24,NNE,32,5.0,9.0,67,0.00,,---,0.00,VWS V13.01,2013-04-23 04:37:00,
2013-04-23 00:41:00,52.8,42.2,30.24,NE,40,0.0,9.0,67,0.00,,---,0.00,VWS V13.01,2013-04-23 04:41:00,
2013-04-23 00:42:00,52.8,42.2,30.24,NE,40,0.0,9.0,67,0.00,,---,0.00,VWS V13.01,2013-04-23 04:42:00,
2013-04-23 00:47:00,52.7,42.5,30.24,ENE,57,0.0,12.0,68,0.00,,---,0.00,VWS V13.01,2013-04-23 04:47:00,
2013-04-23 00:48:00,52.7,42.5,30.24,NNE,22,10.0,15.0,68,0.00,,---,0.00,VWS V13.01,2013-04-23 04:48:00,
2013-04-23 00:52:00,52.6,42.3,30.24,ESE,105,10.0,17.0,68,0.00,,---,0.00,VWS V13.01,2013-04-23 04:52:00,
2013-04-23 00:53:00,52.6,42.3,30.24,ENE,59,2.0,17.0,68,0.00,,---,0.00,VWS V13.01,2013-04-23 04:53:00,
2013-04-23 00:57:00,52.5,42.6,30.24,ENE,74,0.0,17.0,69,0.00,,---,0.00,VWS V13.01,2013-04-23 04:57:00,
2013-04-23 00:58:00,52.5,42.6,30.24,NE,53,9.0,17.0,69,0.00,,---,0.00,VWS V13.01,2013-04-23 04:58:00,
2013-04-23 01:02:00,52.4,42.5,30.24,East,81,4.0,4.0,69,0.00,,---,0.00,VWS V13.01,2013-04-23 05:02:00,
2013-04-23 01:03:00,52.4,42.5,30.24,East,92,3.0,5.0,69,0.00,,---,0.00,VWS V13.01,2013-04-23 05:03:00,
2013-04-23 01:08:00,52.3,42.5,30.24,ENE,65,11.0,15.0,69,0.00,,---,0.00,VWS V13.01,2013-04-23 05:08:00,
2013-04-23 01:13:00,52.2,42.7,30.24,ESE,103,1.0,16.0,70,0.00,,---,0.00,VWS V13.01,2013-04-23 05:13:00,
2013-04-23 01:18:00,52.1,42.6,30.24,East,95,4.0,16.0,70,0.00,,---,0.00,VWS V13.01,2013-04-23 05:18:00,
2013-04-23 01:23:00,52.0,42.9,30.24,ENE,63,6.0,16.0,71,0.00,,---,0.00,VWS V13.01,2013-04-23 05:23:00,
2013-04-23 01:24:00,52.0,42.9,30.24,NE,38,6.0,16.0,71,0.00,,---,0.00,VWS V13.01,2013-04-23 05:24:00,
2013-04-23 01:28:00,51.9,42.8,30.24,ENE,67,0.0,16.0,71,0.00,,---,0.00,VWS V13.01,2013-04-23 05:28:00,
2013-04-23 01:29:00,51.9,42.8,30.24,ENE,67,0.0,16.0,71,0.00,,---,0.00,VWS V13.01,2013-04-23 05:29:00,
2013-04-23 01:33:00,51.9,42.8,30.24,ENE,61,6.0,9.0,71,0.00,,---,0.00,VWS V13.01,2013-04-23 05:33:00,
2013-04-23 01:34:00,51.8,42.7,30.24,ENE,71,10.0,11.0,71,0.00,,---,0.00,VWS V13.01,2013-04-23 05:34:00,
2013-04-23 01:38:00,51.8,43.1,30.24,East,87,5.0,11.0,72,0.00,,---,0.00,VWS V13.01,2013-04-23 05:38:00,
2013-04-23 01:39:00,51.7,43.0,30.24,ESE,102,6.0,11.0,72,0.00,,---,0.00,VWS V13.01,2013-04-23 05:39:00,
2013-04-23 01:43:00,51.6,43.2,30.24,NE,42,0.0,11.0,73,0.00,,---,0.00,VWS V13.01,2013-04-23 05:43:00,
2013-04-23 01:44:00,51.6,43.2,30.24,NE,42,0.0,11.0,73,0.00,,---,0.00,VWS V13.01,2013-04-23 05:44:00,
2013-04-23 01:48:00,51.5,43.5,30.24,NE,46,0.0,11.0,74,0.00,,---,0.00,VWS V13.01,2013-04-23 05:48:00,
2013-04-23 01:49:00,51.5,43.5,30.24,NE,46,0.0,11.0,74,0.00,,---,0.00,VWS V13.01,2013-04-23 05:49:00,
2013-04-23 01:53:00,51.5,43.8,30.24,North,355,4.0,14.0,75,0.00,,---,0.00,VWS V13.01,2013-04-23 05:53:00,
2013-04-23 01:54:00,51.5,43.8,30.24,NNE,14,4.0,14.0,75,0.00,,---,0.00,VWS V13.01,2013-04-23 05:54:00,
2013-04-23 01:59:00,51.3,43.7,30.24,NE,44,2.0,14.0,75,0.00,,---,0.00,VWS V13.01,2013-04-23 05:59:00,
2013-04-23 02:04:00,51.1,43.8,30.24,NE,49,5.0,15.0,76,0.00,,---,0.00,VWS V13.01,2013-04-23 06:04:00,
2013-04-23 02:05:00,51.1,43.8,30.24,NE,38,4.0,15.0,76,0.00,,---,0.00,VWS V13.01,2013-04-23 06:05:00,
2013-04-23 02:09:00,50.8,43.9,30.24,ENE,76,2.0,15.0,77,0.00,,---,0.00,VWS V13.01,2013-04-23 06:09:00,
2013-04-23 02:10:00,50.8,43.9,30.24,NE,46,2.0,15.0,77,0.00,,---,0.00,VWS V13.01,2013-04-23 06:10:00,
2013-04-23 02:14:00,50.5,43.9,30.24,NNE,32,6.0,15.0,78,0.00,,---,0.00,VWS V13.01,2013-04-23 06:14:00,
2013-04-23 02:15:00,50.5,43.9,30.24,NNW,345,2.0,15.0,78,0.00,,---,0.00,VWS V13.01,2013-04-23 06:15:00,
2013-04-23 02:19:00,50.4,44.1,30.24,NNE,15,10.0,15.0,79,0.00,,---,0.00,VWS V13.01,2013-04-23 06:19:00,
2013-04-23 02:20:00,50.4,44.1,30.24,NE,54,3.0,15.0,79,0.00,,---,0.00,VWS V13.01,2013-04-23 06:20:00,
2013-04-23 02:24:00,50.1,44.2,30.24,NW,321,1.0,15.0,80,0.00,,---,0.00,VWS V13.01,2013-04-23 06:24:00,
2013-04-23 02:25:00,50.1,44.2,30.24,NNW,347,4.0,15.0,80,0.00,,---,0.00,VWS V13.01,2013-04-23 06:25:00,
2013-04-23 02:30:00,49.9,44.0,30.24,NW,324,0.0,15.0,80,0.00,,---,0.00,VWS V13.01,2013-04-23 06:30:00,
2013-04-23 02:35:00,49.7,44.1,30.23,ENE,61,3.0,9.0,81,0.00,,---,0.00,VWS V13.01,2013-04-23 06:35:00,
2013-04-23 02:36:00,49.7,44.1,30.23,ENE,61,0.0,9.0,81,0.00,,---,0.00,VWS V13.01,2013-04-23 06:36:00,
2013-04-23 02:40:00,49.6,44.0,30.23,NNW,334,4.0,9.0,81,0.00,,---,0.00,VWS V13.01,2013-04-23 06:40:00,
2013-04-23 02:41:00,49.6,44.0,30.23,NNE,15,0.0,9.0,81,0.00,,---,0.00,VWS V13.01,2013-04-23 06:41:00,
2013-04-23 02:45:00,49.5,44.2,30.22,NE,44,3.0,10.0,82,0.00,,---,0.00,VWS V13.01,2013-04-23 06:45:00,
2013-04-23 02:46:00,49.5,44.2,30.22,North,360,0.0,10.0,82,0.00,,---,0.00,VWS V13.01,2013-04-23 06:46:00,
2013-04-23 02:50:00,49.4,44.1,30.22,NNW,345,4.0,10.0,82,0.00,,---,0.00,VWS V13.01,2013-04-23 06:50:00,
2013-04-23 02:51:00,49.4,44.1,30.22,NNW,346,4.0,10.0,82,0.00,,---,0.00,VWS V13.01,2013-04-23 06:51:00,
2013-04-23 02:56:00,49.3,44.0,30.22,NNE,15,0.0,10.0,82,0.00,,---,0.00,VWS V13.01,2013-04-23 06:56:00,
2013-04-23 03:01:00,49.3,44.0,30.22,NNE,19,2.0,10.0,82,0.00,,---,0.00,VWS V13.01,2013-04-23 07:01:00,
2013-04-23 03:06:00,49.2,44.3,30.22,NE,36,0.0,6.0,83,0.00,,---,0.00,VWS V13.01,2013-04-23 07:06:00,
2013-04-23 03:11:00,49.2,44.3,30.21,NE,36,0.0,6.0,83,0.00,,---,0.00,VWS V13.01,2013-04-23 07:11:00,
2013-04-23 03:16:00,49.1,44.2,30.21,NNE,21,1.0,9.0,83,0.00,,---,0.00,VWS V13.01,2013-04-23 07:16:00,
2013-04-23 03:21:00,49.0,44.1,30.21,NE,41,0.0,12.0,83,0.00,,---,0.00,VWS V13.01,2013-04-23 07:21:00,
2013-04-23 03:22:00,49.0,44.1,30.21,NE,55,6.0,12.0,83,0.00,,---,0.00,VWS V13.01,2013-04-23 07:22:00,
2013-04-23 03:26:00,49.0,44.1,30.21,NE,42,0.0,12.0,83,0.00,,---,0.00,VWS V13.01,2013-04-23 07:26:00,
2013-04-23 03:27:00,49.0,44.1,30.21,NE,42,0.0,12.0,83,0.00,,---,0.00,VWS V13.01,2013-04-23 07:27:00,
2013-04-23 03:31:00,49.0,44.1,30.21,NE,41,0.0,0.0,83,0.00,,---,0.00,VWS V13.01,2013-04-23 07:31:00,
2013-04-23 03:32:00,49.0,44.1,30.21,NE,42,0.0,0.0,83,0.00,,---,0.00,VWS V13.01,2013-04-23 07:32:00,
2013-04-23 03:36:00,48.9,44.0,30.21,NE,51,5.0,5.0,83,0.00,,---,0.00,VWS V13.01,2013-04-23 07:36:00,
2013-04-23 03:37:00,48.9,44.0,30.21,ENE,78,2.0,5.0,83,0.00,,---,0.00,VWS V13.01,2013-04-23 07:37:00,
2013-04-23 03:42:00,48.9,44.0,30.21,NNW,347,3.0,6.0,83,0.00,,---,0.00,VWS V13.01,2013-04-23 07:42:00,
2013-04-23 03:47:00,48.8,43.9,30.21,NNE,15,1.0,10.0,83,0.00,,---,0.00,VWS V13.01,2013-04-23 07:47:00,
2013-04-23 03:52:00,48.8,43.9,30.21,NE,43,2.0,10.0,83,0.00,,---,0.00,VWS V13.01,2013-04-23 07:52:00,
2013-04-23 03:53:00,48.8,43.9,30.21,NE,41,0.0,10.0,83,0.00,,---,0.00,VWS V13.01,2013-04-23 07:53:00,
2013-04-23 03:57:00,48.8,43.9,30.21,NE,40,3.0,10.0,83,0.00,,---,0.00,VWS V13.01,2013-04-23 07:57:00,
2013-04-23 03:58:00,48.8,43.9,30.21,NE,38,0.0,10.0,83,0.00,,---,0.00,VWS V13.01,2013-04-23 07:58:00,
2013-04-23 04:02:00,48.7,43.8,30.21,NNE,21,0.0,0.0,83,0.00,,---,0.00,VWS V13.01,2013-04-23 08:02:00,
2013-04-23 04:03:00,48.7,43.8,30.21,NNE,19,2.0,2.0,83,0.00,,---,0.00,VWS V13.01,2013-04-23 08:03:00,
2013-04-23 04:07:00,48.7,44.1,30.21,East,83,0.0,3.0,84,0.00,,---,0.00,VWS V13.01,2013-04-23 08:07:00,
2013-04-23 04:08:00,48.7,44.1,30.21,East,80,0.0,3.0,84,0.00,,---,0.00,VWS V13.01,2013-04-23 08:08:00,
2013-04-23 04:12:00,48.7,44.1,30.21,NNE,32,8.0,9.0,84,0.00,,---,0.00,VWS V13.01,2013-04-23 08:12:00,
2013-04-23 04:13:00,48.7,44.1,30.21,NE,52,0.0,9.0,84,0.00,,---,0.00,VWS V13.01,2013-04-23 08:13:00,
2013-04-23 04:17:00,48.7,44.1,30.21,North,349,2.0,11.0,84,0.00,,---,0.00,VWS V13.01,2013-04-23 08:17:00,
2013-04-23 04:18:00,48.7,44.1,30.21,North,350,0.0,11.0,84,0.00,,---,0.00,VWS V13.01,2013-04-23 08:18:00,
2013-04-23 04:22:00,48.6,44.0,30.21,NE,53,2.0,11.0,84,0.00,,---,0.00,VWS V13.01,2013-04-23 08:22:00,
2013-04-23 04:23:00,48.6,44.0,30.21,North,360,1.0,11.0,84,0.00,,---,0.00,VWS V13.01,2013-04-23 08:23:00,
2013-04-23 04:27:00,48.6,44.0,30.21,NNW,342,5.0,11.0,84,0.00,,---,0.00,VWS V13.01,2013-04-23 08:27:00,
2013-04-23 04:28:00,48.6,44.0,30.21,North,5,3.0,11.0,84,0.00,,---,0.00,VWS V13.01,2013-04-23 08:28:00,
2013-04-23 04:32:00,48.5,43.9,30.21,NE,42,0.0,7.0,84,0.00,,---,0.00,VWS V13.01,2013-04-23 08:32:00,
2013-04-23 04:33:00,48.5,43.9,30.21,NE,43,0.0,7.0,84,0.00,,---,0.00,VWS V13.01,2013-04-23 08:33:00,
2013-04-23 04:38:00,48.4,43.8,30.21,North,355,2.0,7.0,84,0.00,,---,0.00,VWS V13.01,2013-04-23 08:38:00,
2013-04-23 04:39:00,48.4,43.8,30.21,North,351,0.0,7.0,84,0.00,,---,0.00,VWS V13.01,2013-04-23 08:39:00,
2013-04-23 04:43:00,48.4,43.8,30.20,NNW,342,6.0,7.0,84,0.00,,---,0.00,VWS V13.01,2013-04-23 08:43:00,
2013-04-23 04:44:00,48.4,43.8,30.21,North,349,1.0,7.0,84,0.00,,---,0.00,VWS V13.01,2013-04-23 08:44:00,
2013-04-23 04:48:00,48.3,43.7,30.21,NNW,344,0.0,7.0,84,0.00,,---,0.00,VWS V13.01,2013-04-23 08:48:00,
2013-04-23 04:49:00,48.3,43.7,30.21,NNW,344,0.0,7.0,84,0.00,,---,0.00,VWS V13.01,2013-04-23 08:49:00,
2013-04-23 04:53:00,48.3,43.7,30.21,North,355,2.0,7.0,84,0.00,,---,0.00,VWS V13.01,2013-04-23 08:53:00,
2013-04-23 04:54:00,48.3,43.7,30.21,North,355,1.0,7.0,84,0.00,,---,0.00,VWS V13.01,2013-04-23 08:54:00,
2013-04-23 04:58:00,48.3,43.7,30.21,NNW,344,5.0,9.0,84,0.00,,---,0.00,VWS V13.01,2013-04-23 08:58:00,
2013-04-23 04:59:00,48.3,43.7,30.21,NNW,346,7.0,9.0,84,0.00,,---,0.00,VWS V13.01,2013-04-23 08:59:00,
2013-04-23 05:03:00,48.3,43.7,30.21,NE,55,6.0,6.0,84,0.00,,---,0.00,VWS V13.01,2013-04-23 09:03:00,
2013-04-23 05:04:00,48.3,43.7,30.21,NW,317,2.0,6.0,84,0.00,,---,0.00,VWS V13.01,2013-04-23 09:04:00,
2013-04-23 05:09:00,48.3,43.7,30.21,North,355,3.0,7.0,84,0.00,,---,0.00,VWS V13.01,2013-04-23 09:09:00,
2013-04-23 05:10:00,48.3,43.7,30.21,North,9,0.0,7.0,84,0.00,,---,0.00,VWS V13.01,2013-04-23 09:10:00,
2013-04-23 05:14:00,48.3,43.4,30.21,NNW,348,0.0,7.0,83,0.00,,---,0.00,VWS V13.01,2013-04-23 09:14:00,
2013-04-23 05:15:00,48.3,43.4,30.20,NW,309,9.0,11.0,83,0.00,,---,0.00,VWS V13.01,2013-04-23 09:15:00,
2013-04-23 05:19:00,48.3,43.4,30.20,North,360,4.0,11.0,83,0.00,,---,0.00,VWS V13.01,2013-04-23 09:19:00,
2013-04-23 05:20:00,48.3,43.4,30.20,North,350,0.0,11.0,83,0.00,,---,0.00,VWS V13.01,2013-04-23 09:20:00,
2013-04-23 05:24:00,48.3,43.4,30.20,NNE,30,0.0,11.0,83,0.00,,---,0.00,VWS V13.01,2013-04-23 09:24:00,
2013-04-23 05:25:00,48.3,43.4,30.20,NNE,28,1.0,11.0,83,0.00,,---,0.00,VWS V13.01,2013-04-23 09:25:00,
2013-04-23 05:29:00,48.3,43.4,30.19,NE,35,0.0,11.0,83,0.00,,---,0.00,VWS V13.01,2013-04-23 09:29:00,
2013-04-23 05:30:00,48.3,43.4,30.20,NE,35,0.0,11.0,83,0.00,,---,0.00,VWS V13.01,2013-04-23 09:30:00,
2013-04-23 05:34:00,48.3,43.4,30.20,North,349,2.0,8.0,83,0.00,,---,0.00,VWS V13.01,2013-04-23 09:34:00,
2013-04-23 05:35:00,48.3,43.4,30.20,North,349,0.0,8.0,83,0.00,,---,0.00,VWS V13.01,2013-04-23 09:35:00,
2013-04-23 05:36:00,48.3,43.4,30.20,North,349,0.0,8.0,83,0.00,,---,0.00,VWS V13.01,2013-04-23 09:36:00,
2013-04-23 05:39:00,48.3,43.4,30.20,North,5,1.0,8.0,83,0.00,,---,0.00,VWS V13.01,2013-04-23 09:39:00,
2013-04-23 05:40:00,48.3,43.4,30.20,North,11,5.0,8.0,83,0.00,,---,0.00,VWS V13.01,2013-04-23 09:40:00,
2013-04-23 05:41:00,48.3,43.4,30.20,NNE,33,0.0,8.0,83,0.00,,---,0.00,VWS V13.01,2013-04-23 09:41:00,
2013-04-23 05:44:00,48.3,43.4,30.20,North,360,4.0,12.0,83,0.00,,---,0.00,VWS V13.01,2013-04-23 09:44:00,
2013-04-23 05:45:00,48.3,43.4,30.20,North,360,2.0,12.0,83,0.00,,---,0.00,VWS V13.01,2013-04-23 09:45:00,
2013-04-23 05:46:00,48.3,43.4,30.20,NNE,32,0.0,12.0,83,0.00,,---,0.00,VWS V13.01,2013-04-23 09:46:00,
2013-04-23 05:49:00,48.3,43.4,30.20,North,360,5.0,12.0,83,0.00,,---,0.00,VWS V13.01,2013-04-23 09:49:00,
2013-04-23 05:50:00,48.3,43.4,30.20,North,9,2.0,12.0,83,0.00,,---,0.00,VWS V13.01,2013-04-23 09:50:00,
2013-04-23 05:51:00,48.3,43.4,30.20,North,9,2.0,12.0,83,0.00,,---,0.00,VWS V13.01,2013-04-23 09:51:00,
2013-04-23 05:54:00,48.3,43.4,30.20,NNE,13,0.0,12.0,83,0.00,,---,0.00,VWS V13.01,2013-04-23 09:54:00,
2013-04-23 05:55:00,48.3,43.4,30.20,NNE,13,0.0,12.0,83,0.00,,---,0.00,VWS V13.01,2013-04-23 09:55:00,
2013-04-23 05:56:00,48.3,43.4,30.20,North,360,1.0,12.0,83,0.00,,---,0.00,VWS V13.01,2013-04-23 09:56:00,
2013-04-23 06:00:00,48.3,43.4,30.20,North,350,0.0,12.0,83,0.00,,---,0.00,VWS V13.01,2013-04-23 10:00:00,
2013-04-23 06:01:00,48.3,43.4,30.20,North,350,0.0,12.0,83,0.00,,---,0.00,VWS V13.01,2013-04-23 10:01:00,
2013-04-23 06:05:00,48.3,43.4,30.20,North,355,0.0,9.0,83,0.00,,---,0.00,VWS V13.01,2013-04-23 10:05:00,
2013-04-23 06:06:00,48.3,43.4,30.20,North,355,5.0,9.0,83,0.00,,---,0.00,VWS V13.01,2013-04-23 10:06:00,
2013-04-23 06:10:00,48.3,43.4,30.20,NNE,26,1.0,9.0,83,0.00,,---,0.00,VWS V13.01,2013-04-23 10:10:00,
2013-04-23 06:11:00,48.3,43.4,30.20,NNE,26,0.0,9.0,83,0.00,,---,0.00,VWS V13.01,2013-04-23 10:11:00,
2013-04-23 06:15:00,48.3,43.4,30.20,NW,325,5.0,9.0,83,0.00,,---,0.00,VWS V13.01,2013-04-23 10:15:00,
2013-04-23 06:16:00,48.4,43.5,30.20,NNW,341,1.0,9.0,83,0.00,,---,0.00,VWS V13.01,2013-04-23 10:16:00,
2013-04-23 06:20:00,48.4,43.5,30.20,North,355,0.0,9.0,83,0.00,,---,0.00,VWS V13.01,2013-04-23 10:20:00,
2013-04-23 06:21:00,48.4,43.5,30.20,North,355,5.0,9.0,83,0.00,,---,0.00,VWS V13.01,2013-04-23 10:21:00,
2013-04-23 06:26:00,48.4,43.5,30.20,NE,34,0.0,11.0,83,0.00,,---,0.00,VWS V13.01,2013-04-23 10:26:00,
2013-04-23 06:27:00,48.4,43.5,30.19,North,355,5.0,11.0,83,0.00,,---,0.00,VWS V13.01,2013-04-23 10:27:00,
2013-04-23 06:31:00,48.3,43.4,30.20,NE,55,0.0,11.0,83,0.00,,---,0.00,VWS V13.01,2013-04-23 10:31:00,
2013-04-23 06:32:00,48.3,43.4,30.19,NE,51,0.0,2.0,83,0.00,,---,0.00,VWS V13.01,2013-04-23 10:32:00,
2013-04-23 06:36:00,48.3,43.4,30.20,NE,44,0.0,6.0,83,0.00,,---,0.00,VWS V13.01,2013-04-23 10:36:00,
2013-04-23 06:37:00,48.3,43.4,30.20,NNE,26,3.0,9.0,83,0.00,,---,0.00,VWS V13.01,2013-04-23 10:37:00,
2013-04-23 06:41:00,48.3,43.4,30.20,NNE,13,3.0,9.0,83,0.00,,---,0.00,VWS V13.01,2013-04-23 10:41:00,
2013-04-23 06:42:00,48.3,43.4,30.20,NNE,22,5.0,9.0,83,0.00,,---,0.00,VWS V13.01,2013-04-23 10:42:00,
2013-04-23 06:46:00,48.3,43.4,30.20,NNE,26,0.0,9.0,83,0.00,,---,0.00,VWS V13.01,2013-04-23 10:46:00,
2013-04-23 06:47:00,48.3,43.4,30.20,NNE,25,0.0,9.0,83,0.00,,---,0.00,VWS V13.01,2013-04-23 10:47:00,
2013-04-23 06:52:00,48.3,43.4,30.20,NE,34,2.0,9.0,83,0.00,,---,0.00,VWS V13.01,2013-04-23 10:52:00,
2013-04-23 06:57:00,48.3,43.4,30.20,NNE,15,1.0,9.0,83,0.00,,---,0.00,VWS V13.01,2013-04-23 10:57:00,
2013-04-23 07:02:00,48.3,43.4,30.20,NNE,25,4.0,4.0,83,0.00,,---,0.00,VWS V13.01,2013-04-23 11:02:00,
2013-04-23 07:03:00,48.3,43.4,30.20,North,350,1.0,6.0,83,0.00,,---,0.00,VWS V13.01,2013-04-23 11:03:00,
2013-04-23 07:07:00,48.3,43.4,30.20,NNE,29,0.0,6.0,83,0.00,,---,0.00,VWS V13.01,2013-04-23 11:07:00,
2013-04-23 07:08:00,48.3,43.4,30.20,NNE,30,3.0,6.0,83,0.00,,---,0.00,VWS V13.01,2013-04-23 11:08:00,
2013-04-23 07:12:00,48.3,43.4,30.20,North,360,2.0,7.0,83,0.00,,---,0.00,VWS V13.01,2013-04-23 11:12:00,
2013-04-23 07:13:00,48.3,43.4,30.20,NNW,348,7.0,7.0,83,0.00,,---,0.00,VWS V13.01,2013-04-23 11:13:00,
2013-04-23 07:17:00,48.3,43.4,30.20,NE,52,0.0,9.0,83,0.00,,---,0.00,VWS V13.01,2013-04-23 11:17:00,
2013-04-23 07:18:00,48.3,43.4,30.20,NE,46,1.0,9.0,83,0.00,,---,0.00,VWS V13.01,2013-04-23 11:18:00,
2013-04-23 07:22:00,48.4,43.5,30.20,NNE,32,2.0,9.0,83,0.00,,---,0.00,VWS V13.01,2013-04-23 11:22:00,
2013-04-23 07:23:00,48.4,43.5,30.20,NE,48,7.0,9.0,83,0.00,,---,0.00,VWS V13.01,2013-04-23 11:23:00,
2013-04-23 07:28:00,48.5,43.6,30.20,North,9,5.0,9.0,83,0.00,,---,0.00,VWS V13.01,2013-04-23 11:28:00,
2013-04-23 07:33:00,48.6,43.7,30.21,North,355,2.0,10.0,83,0.00,,---,0.00,VWS V13.01,2013-04-23 11:33:00,
2013-04-23 07:38:00,48.6,43.4,30.21,ENE,72,7.0,10.0,82,0.00,,---,0.00,VWS V13.01,2013-04-23 11:38:00,
2013-04-23 07:39:00,48.6,43.4,30.20,NE,42,5.0,12.0,82,0.00,,---,0.00,VWS V13.01,2013-04-23 11:39:00,
2013-04-23 07:43:00,48.6,43.4,30.21,North,360,0.0,12.0,82,0.00,,---,0.00,VWS V13.01,2013-04-23 11:43:00,
2013-04-23 07:44:00,48.6,43.4,30.21,NE,40,2.0,12.0,82,0.00,,---,0.00,VWS V13.01,2013-04-23 11:44:00,
2013-04-23 07:48:00,48.7,43.5,30.20,NE,46,2.0,13.0,82,0.00,,---,0.00,VWS V13.01,2013-04-23 11:48:00,
2013-04-23 07:49:00,48.7,43.5,30.20,NE,43,1.0,13.0,82,0.00,,---,0.00,VWS V13.01,2013-04-23 11:49:00,
2013-04-23 07:53:00,48.7,43.5,30.20,NE,36,3.0,13.0,82,0.00,,---,0.00,VWS V13.01,2013-04-23 11:53:00,
2013-04-23 07:54:00,48.7,43.5,30.20,NNE,27,4.0,13.0,82,0.00,,---,0.00,VWS V13.01,2013-04-23 11:54:00,
2013-04-23 07:58:00,48.8,43.6,30.20,ENE,61,0.0,13.0,82,0.00,,---,0.00,VWS V13.01,2013-04-23 11:58:00,
2013-04-23 07:59:00,48.8,43.6,30.20,ENE,59,0.0,13.0,82,0.00,,---,0.00,VWS V13.01,2013-04-23 11:59:00,
2013-04-23 08:03:00,48.9,43.7,30.21,NNW,330,0.0,7.0,82,0.00,,---,0.00,VWS V13.01,2013-04-23 12:03:00,
2013-04-23 08:04:00,48.9,43.7,30.21,NNW,331,0.0,7.0,82,0.00,,---,0.00,VWS V13.01,2013-04-23 12:04:00,
2013-04-23 08:05:00,49.0,43.8,30.21,NNE,30,0.0,7.0,82,0.00,,---,0.00,VWS V13.01,2013-04-23 12:05:00,
2013-04-23 08:08:00,49.0,43.8,30.21,North,9,3.0,9.0,82,0.00,,---,0.00,VWS V13.01,2013-04-23 12:08:00,
2013-04-23 08:09:00,49.0,43.8,30.21,East,79,0.0,9.0,82,0.00,,---,0.00,VWS V13.01,2013-04-23 12:09:00,
2013-04-23 08:10:00,49.1,43.8,30.21,NE,46,2.0,9.0,82,0.00,,---,0.00,VWS V13.01,2013-04-23 12:10:00,
2013-04-23 08:13:00,49.2,44.0,30.21,NNE,32,2.0,9.0,82,0.00,,---,0.00,VWS V13.01,2013-04-23 12:13:00,
2013-04-23 08:14:00,49.2,44.0,30.21,North,360,3.0,9.0,82,0.00,,---,0.00,VWS V13.01,2013-04-23 12:14:00,
2013-04-23 08:15:00,49.2,44.0,30.21,North,360,3.0,9.0,82,0.00,,---,0.00,VWS V13.01,2013-04-23 12:15:00,
2013-04-23 08:16:00,49.2,44.0,30.21,North,360,0.0,9.0,82,0.00,,---,0.00,VWS V13.01,2013-04-23 12:16:00,
2013-04-23 08:19:00,49.3,44.0,30.21,NE,42,4.0,9.0,82,0.00,,---,0.00,VWS V13.01,2013-04-23 12:19:00,
2013-04-23 08:20:00,49.4,44.1,30.21,NE,42,7.0,9.0,82,0.00,,---,0.00,VWS V13.01,2013-04-23 12:20:00,
2013-04-23 08:21:00,49.4,44.1,30.21,ENE,57,6.0,9.0,82,0.00,,---,0.00,VWS V13.01,2013-04-23 12:21:00,
2013-04-23 08:24:00,49.5,43.9,30.21,ENE,59,0.0,9.0,81,0.00,,---,0.00,VWS V13.01,2013-04-23 12:24:00,
2013-04-23 08:25:00,49.6,44.0,30.21,NE,52,0.0,9.0,81,0.00,,---,0.00,VWS V13.01,2013-04-23 12:25:00,
2013-04-23 08:26:00,49.6,44.0,30.21,NE,52,0.0,9.0,81,0.00,,---,0.00,VWS V13.01,2013-04-23 12:26:00,
2013-04-23 08:29:00,49.6,44.0,30.21,NE,53,0.0,9.0,81,0.00,,---,0.00,VWS V13.01,2013-04-23 12:29:00,
2013-04-23 08:30:00,49.7,44.1,30.21,NE,53,0.0,9.0,81,0.00,,---,0.00,VWS V13.01,2013-04-23 12:30:00,
2013-04-23 08:31:00,49.7,44.1,30.21,NE,53,0.0,9.0,81,0.00,,---,0.00,VWS V13.01,2013-04-23 12:31:00,
2013-04-23 08:34:00,49.8,44.2,30.21,ENE,57,9.0,9.0,81,0.00,,---,0.00,VWS V13.01,2013-04-23 12:34:00,
2013-04-23 08:35:00,49.8,44.2,30.21,North,5,7.0,11.0,81,0.00,,---,0.00,VWS V13.01,2013-04-23 12:35:00,
2013-04-23 08:36:00,49.8,44.2,30.21,NNW,337,1.0,11.0,81,0.00,,---,0.00,VWS V13.01,2013-04-23 12:36:00,
2013-04-23 08:39:00,50.0,44.1,30.21,NE,50,2.0,11.0,80,0.00,,---,0.00,VWS V13.01,2013-04-23 12:39:00,
2013-04-23 08:40:00,50.0,44.1,30.21,North,360,5.0,11.0,80,0.00,,---,0.00,VWS V13.01,2013-04-23 12:40:00,
2013-04-23 08:41:00,50.0,44.1,30.21,North,360,0.0,11.0,80,0.00,,---,0.00,VWS V13.01,2013-04-23 12:41:00,
2013-04-23 08:44:00,50.1,44.2,30.21,NNW,348,6.0,11.0,80,0.00,,---,0.00,VWS V13.01,2013-04-23 12:44:00,
2013-04-23 08:46:00,50.2,44.3,30.21,North,360,4.0,11.0,80,0.00,,---,0.00,VWS V13.01,2013-04-23 12:46:00,
2013-04-23 08:49:00,50.3,44.4,30.21,NE,37,0.0,11.0,80,0.00,,---,0.00,VWS V13.01,2013-04-23 12:49:00,
2013-04-23 08:50:00,50.3,44.4,30.21,NNE,22,5.0,11.0,80,0.00,,---,0.00,VWS V13.01,2013-04-23 12:50:00,
2013-04-23 08:51:00,50.4,44.5,30.21,NNE,28,2.0,11.0,80,0.00,,---,0.00,VWS V13.01,2013-04-23 12:51:00,
2013-04-23 08:54:00,50.5,44.6,30.21,NE,40,5.0,11.0,80,0.00,,---,0.00,VWS V13.01,2013-04-23 12:54:00,
2013-04-23 08:55:00,50.5,44.2,30.21,NE,40,0.0,11.0,79,0.00,,---,0.00,VWS V13.01,2013-04-23 12:55:00,
2013-04-23 08:56:00,50.6,44.3,30.21,NE,40,0.0,11.0,79,0.00,,---,0.00,VWS V13.01,2013-04-23 12:56:00,
2013-04-23 08:57:00,50.6,44.3,30.21,NE,45,0.0,11.0,79,0.00,,---,0.00,VWS V13.01,2013-04-23 12:57:00,
2013-04-23 08:59:00,50.8,44.5,30.21,NE,52,0.0,11.0,79,0.00,,---,0.00,VWS V13.01,2013-04-23 12:59:00,
2013-04-23 09:00:00,50.8,44.9,30.21,NE,52,0.0,11.0,80,0.00,,---,0.00,VWS V13.01,2013-04-23 13:00:00,
2013-04-23 09:01:00,50.8,44.5,30.21,ENE,61,7.0,7.0,79,0.00,,---,0.00,VWS V13.01,2013-04-23 13:01:00,
2013-04-23 09:02:00,50.9,44.6,30.21,NE,55,3.0,7.0,79,0.00,,---,0.00,VWS V13.01,2013-04-23 13:02:00,
2013-04-23 09:04:00,50.9,44.6,30.21,NE,49,4.0,7.0,79,0.00,,---,0.00,VWS V13.01,2013-04-23 13:04:00,
2013-04-23 09:05:00,51.0,44.7,30.20,NE,50,0.0,7.0,79,0.00,,---,0.00,VWS V13.01,2013-04-23 13:05:00,
2013-04-23 09:06:00,51.0,44.7,30.20,NE,51,0.0,7.0,79,0.00,,---,0.00,VWS V13.01,2013-04-23 13:06:00,
2013-04-23 09:07:00,51.0,44.7,30.20,NE,43,0.0,7.0,79,0.00,,---,0.00,VWS V13.01,2013-04-23 13:07:00,
2013-04-23 09:09:00,51.2,44.9,30.21,NNW,344,0.0,7.0,79,0.00,,---,0.00,VWS V13.01,2013-04-23 13:09:00,
2013-04-23 09:10:00,51.2,44.9,30.21,NNW,344,0.0,7.0,79,0.00,,---,0.00,VWS V13.01,2013-04-23 13:10:00,
2013-04-23 09:11:00,51.2,44.9,30.21,NNE,32,4.0,7.0,79,0.00,,---,0.00,VWS V13.01,2013-04-23 13:11:00,
2013-04-23 09:12:00,51.3,45.0,30.21,NNE,29,2.0,7.0,79,0.00,,---,0.00,VWS V13.01,2013-04-23 13:12:00,
2013-04-23 09:15:00,51.4,44.8,30.21,North,355,0.0,7.0,78,0.00,,---,0.00,VWS V13.01,2013-04-23 13:15:00,
2013-04-23 09:16:00,51.5,44.9,30.21,ENE,60,4.0,7.0,78,0.00,,---,0.00,VWS V13.01,2013-04-23 13:16:00,
2013-04-23 09:17:00,51.5,44.9,30.21,ENE,63,0.0,7.0,78,0.00,,---,0.00,VWS V13.01,2013-04-23 13:17:00,
2013-04-23 09:20:00,51.6,45.0,30.21,ENE,67,5.0,7.0,78,0.00,,---,0.00,VWS V13.01,2013-04-23 13:20:00,
2013-04-23 09:21:00,51.7,45.1,30.21,NE,53,6.0,11.0,78,0.00,,---,0.00,VWS V13.01,2013-04-23 13:21:00,
2013-04-23 09:22:00,51.7,45.1,30.21,NE,55,2.0,11.0,78,0.00,,---,0.00,VWS V13.01,2013-04-23 13:22:00,
2013-04-23 09:23:00,51.7,45.1,30.21,NE,55,0.0,11.0,78,0.00,,---,0.00,VWS V13.01,2013-04-23 13:23:00,
2013-04-23 09:25:00,51.8,45.2,30.20,NE,52,0.0,11.0,78,0.00,,---,0.00,VWS V13.01,2013-04-23 13:25:00,
2013-04-23 09:26:00,51.8,45.2,30.20,East,84,4.0,11.0,78,0.00,,---,0.00,VWS V13.01,2013-04-23 13:26:00,
2013-04-23 09:27:00,51.8,45.2,30.20,East,96,0.0,11.0,78,0.00,,---,0.00,VWS V13.01,2013-04-23 13:27:00,
2013-04-23 09:28:00,51.8,44.8,30.20,East,86,0.0,11.0,77,0.00,,---,0.00,VWS V13.01,2013-04-23 13:28:00,
2013-04-23 09:30:00,51.9,44.9,30.20,NE,45,3.0,11.0,77,0.00,,---,0.00,VWS V13.01,2013-04-23 13:30:00,
2013-04-23 09:31:00,51.9,45.3,30.20,ESE,103,0.0,11.0,78,0.00,,---,0.00,VWS V13.01,2013-04-23 13:31:00,
2013-04-23 09:32:00,52.0,45.0,30.20,North,360,2.0,7.0,77,0.00,,---,0.00,VWS V13.01,2013-04-23 13:32:00,
2013-04-23 09:33:00,52.0,45.0,30.20,North,360,3.0,7.0,77,0.00,,---,0.00,VWS V13.01,2013-04-23 13:33:00,
2013-04-23 09:35:00,52.1,45.1,30.20,ENE,71,3.0,9.0,77,0.00,,---,0.00,VWS V13.01,2013-04-23 13:35:00,
2013-04-23 09:36:00,52.1,45.1,30.20,ENE,67,0.0,9.0,77,0.00,,---,0.00,VWS V13.01,2013-04-23 13:36:00,
2013-04-23 09:38:00,52.2,45.2,30.20,ENE,63,9.0,11.0,77,0.00,,---,0.00,VWS V13.01,2013-04-23 13:38:00,
2013-04-23 09:40:00,52.3,45.3,30.20,ENE,61,3.0,11.0,77,0.00,,---,0.00,VWS V13.01,2013-04-23 13:40:00,
2013-04-23 09:41:00,52.4,45.4,30.20,NE,53,2.0,11.0,77,0.00,,---,0.00,VWS V13.01,2013-04-23 13:41:00,
2013-04-23 09:43:00,52.4,45.1,30.21,NNE,26,2.0,11.0,76,0.00,,---,0.00,VWS V13.01,2013-04-23 13:43:00,
2013-04-23 09:46:00,52.5,45.2,30.21,NNE,26,0.0,11.0,76,0.00,,---,0.00,VWS V13.01,2013-04-23 13:46:00,
2013-04-23 09:47:00,52.6,45.3,30.21,North,5,5.0,11.0,76,0.00,,---,0.00,VWS V13.01,2013-04-23 13:47:00,
2013-04-23 09:48:00,52.6,45.3,30.21,North,355,4.0,11.0,76,0.00,,---,0.00,VWS V13.01,2013-04-23 13:48:00,
2013-04-23 09:51:00,52.8,45.5,30.21,NNE,18,3.0,11.0,76,0.00,,---,0.00,VWS V13.01,2013-04-23 13:51:00,
2013-04-23 09:52:00,52.9,45.5,30.21,NNE,20,3.0,11.0,76,0.00,,---,0.00,VWS V13.01,2013-04-23 13:52:00,
2013-04-23 09:53:00,52.9,45.5,30.21,NNE,27,5.0,11.0,76,0.00,,---,0.00,VWS V13.01,2013-04-23 13:53:00,
2013-04-23 09:56:00,53.1,45.4,30.21,North,351,5.0,11.0,75,0.00,,---,0.00,VWS V13.01,2013-04-23 13:56:00,
2013-04-23 09:57:00,53.1,45.4,30.21,North,5,6.0,11.0,75,0.00,,---,0.00,VWS V13.01,2013-04-23 13:57:00,
2013-04-23 09:58:00,53.2,45.5,30.21,North,355,0.0,11.0,75,0.00,,---,0.00,VWS V13.01,2013-04-23 13:58:00,
2013-04-23 10:01:00,53.3,45.2,30.21,North,355,7.0,8.0,74,0.00,,---,0.00,VWS V13.01,2013-04-23 14:01:00,
2013-04-23 10:02:00,53.3,45.2,30.21,North,355,6.0,8.0,74,0.00,,---,0.00,VWS V13.01,2013-04-23 14:02:00,
2013-04-23 10:03:00,53.4,45.3,30.21,NNW,333,6.0,10.0,74,0.00,,---,0.00,VWS V13.01,2013-04-23 14:03:00,
2013-04-23 10:04:00,53.4,45.3,30.21,NNW,344,13.0,13.0,74,0.00,,---,0.00,VWS V13.01,2013-04-23 14:04:00,
2013-04-23 10:07:00,53.4,45.3,30.21,North,360,4.0,13.0,74,0.00,,---,0.00,VWS V13.01,2013-04-23 14:07:00,
2013-04-23 10:08:00,53.5,45.4,30.21,NNW,340,6.0,13.0,74,0.00,,---,0.00,VWS V13.01,2013-04-23 14:08:00,
2013-04-23 10:09:00,53.5,45.4,30.21,NW,315,6.0,13.0,74,0.00,,---,0.00,VWS V13.01,2013-04-23 14:09:00,
2013-04-23 10:12:00,53.5,45.4,30.21,NNE,20,2.0,13.0,74,0.00,,---,0.00,VWS V13.01,2013-04-23 14:12:00,
2013-04-23 10:13:00,53.6,45.5,30.21,ENE,66,4.0,13.0,74,0.00,,---,0.00,VWS V13.01,2013-04-23 14:13:00,
2013-04-23 10:14:00,53.6,45.5,30.21,ENE,60,4.0,13.0,74,0.00,,---,0.00,VWS V13.01,2013-04-23 14:14:00,
2013-04-23 10:17:00,53.7,45.3,30.21,NE,42,3.0,13.0,73,0.00,,---,0.00,VWS V13.01,2013-04-23 14:17:00,
2013-04-23 10:18:00,53.7,45.6,30.21,NE,42,0.0,13.0,74,0.00,,---,0.00,VWS V13.01,2013-04-23 14:18:00,
2013-04-23 10:19:00,53.8,45.7,30.22,NNW,329,0.0,13.0,74,0.00,,---,0.00,VWS V13.01,2013-04-23 14:19:00,
2013-04-23 10:22:00,53.9,45.5,30.21,NNW,339,0.0,13.0,73,0.00,,---,0.00,VWS V13.01,2013-04-23 14:22:00,
2013-04-23 10:23:00,53.9,45.5,30.21,NNW,341,0.0,13.0,73,0.00,,---,0.00,VWS V13.01,2013-04-23 14:23:00,
2013-04-23 10:25:00,54.0,45.5,30.21,NNE,16,3.0,13.0,73,0.00,,---,0.00,VWS V13.01,2013-04-23 14:25:00,
2013-04-23 10:27:00,54.0,45.2,30.22,NNW,345,6.0,13.0,72,0.00,,---,0.00,VWS V13.01,2013-04-23 14:27:00,
2013-04-23 10:28:00,54.1,45.3,30.22,East,82,2.0,13.0,72,0.00,,---,0.00,VWS V13.01,2013-04-23 14:28:00,
2013-04-23 10:29:00,54.1,45.3,30.22,NNE,25,2.0,13.0,72,0.00,,---,0.00,VWS V13.01,2013-04-23 14:29:00,
2013-04-23 10:30:00,54.1,45.3,30.22,NNE,25,0.0,13.0,72,0.00,,---,0.00,VWS V13.01,2013-04-23 14:30:00,
2013-04-23 10:32:00,54.1,45.7,30.22,NE,36,3.0,4.0,73,0.00,,---,0.00,VWS V13.01,2013-04-23 14:32:00,
2013-04-23 10:33:00,54.1,45.7,30.22,NE,40,3.0,4.0,73,0.00,,---,0.00,VWS V13.01,2013-04-23 14:33:00,
2013-04-23 10:34:00,54.2,45.4,30.22,ENE,66,0.0,6.0,72,0.00,,---,0.00,VWS V13.01,2013-04-23 14:34:00,
2013-04-23 10:35:00,54.2,45.4,30.22,ENE,65,2.0,6.0,72,0.00,,---,0.00,VWS V13.01,2013-04-23 14:35:00,
2013-04-23 10:37:00,54.2,45.4,30.22,NE,48,1.0,6.0,72,0.00,,---,0.00,VWS V13.01,2013-04-23 14:37:00,
2013-04-23 10:38:00,54.2,45.8,30.22,NE,44,5.0,6.0,73,0.00,,---,0.00,VWS V13.01,2013-04-23 14:38:00,
2013-04-23 10:40:00,54.2,45.4,30.22,NE,53,0.0,6.0,72,0.00,,---,0.00,VWS V13.01,2013-04-23 14:40:00,
2013-04-23 10:43:00,54.2,45.4,30.22,NE,54,0.0,6.0,72,0.00,,---,0.00,VWS V13.01,2013-04-23 14:43:00,
2013-04-23 10:45:00,54.3,45.5,30.22,NE,53,2.0,6.0,72,0.00,,---,0.00,VWS V13.01,2013-04-23 14:45:00,
2013-04-23 10:48:00,54.4,45.9,30.22,NE,51,0.0,6.0,73,0.00,,---,0.00,VWS V13.01,2013-04-23 14:48:00,
2013-04-23 10:50:00,54.5,46.0,30.22,NNE,26,2.0,6.0,73,0.00,,---,0.00,VWS V13.01,2013-04-23 14:50:00,
2013-04-23 10:53:00,54.6,46.1,30.22,NNE,28,0.0,6.0,73,0.00,,---,0.00,VWS V13.01,2013-04-23 14:53:00,
2013-04-23 10:54:00,54.6,46.1,30.22,NNE,28,0.0,6.0,73,0.00,,---,0.00,VWS V13.01,2013-04-23 14:54:00,
2013-04-23 10:55:00,54.7,46.2,30.22,NNE,28,0.0,6.0,73,0.00,,---,0.00,VWS V13.01,2013-04-23 14:55:00,
2013-04-23 10:58:00,54.9,46.4,30.22,NE,40,3.0,6.0,73,0.00,,---,0.00,VWS V13.01,2013-04-23 14:58:00,
2013-04-23 10:59:00,54.9,46.4,30.22,NNE,32,0.0,6.0,73,0.00,,---,0.00,VWS V13.01,2013-04-23 14:59:00,
2013-04-23 11:00:00,55.0,46.5,30.22,NNE,20,0.0,6.0,73,0.00,,---,0.00,VWS V13.01,2013-04-23 15:00:00,
2013-04-23 11:03:00,55.1,45.9,30.22,NNE,15,0.0,5.0,71,0.00,,---,0.00,VWS V13.01,2013-04-23 15:03:00,
2013-04-23 11:04:00,55.1,45.9,30.22,NNE,15,0.0,5.0,71,0.00,,---,0.00,VWS V13.01,2013-04-23 15:04:00,
2013-04-23 11:05:00,55.2,46.0,30.22,NNE,15,0.0,5.0,71,0.00,,---,0.00,VWS V13.01,2013-04-23 15:05:00,
2013-04-23 11:08:00,55.3,46.1,30.22,North,5,3.0,5.0,71,0.00,,---,0.00,VWS V13.01,2013-04-23 15:08:00,
2013-04-23 11:09:00,55.4,46.2,30.22,North,5,1.0,5.0,71,0.00,,---,0.00,VWS V13.01,2013-04-23 15:09:00,
2013-04-23 11:10:00,55.4,45.8,30.22,North,360,1.0,5.0,70,0.00,,---,0.00,VWS V13.01,2013-04-23 15:10:00,
2013-04-23 11:13:00,55.4,46.2,30.22,North,360,0.0,5.0,71,0.00,,---,0.00,VWS V13.01,2013-04-23 15:13:00,
2013-04-23 11:14:00,55.5,46.3,30.22,North,360,0.0,5.0,71,0.00,,---,0.00,VWS V13.01,2013-04-23 15:14:00,
2013-04-23 11:15:00,55.5,46.3,30.22,North,360,0.0,5.0,71,0.00,,---,0.00,VWS V13.01,2013-04-23 15:15:00,
2013-04-23 11:16:00,55.6,46.4,30.22,North,360,0.0,5.0,71,0.00,,---,0.00,VWS V13.01,2013-04-23 15:16:00,
2013-04-23 11:18:00,55.7,46.5,30.22,North,360,0.0,5.0,71,0.00,,---,0.00,VWS V13.01,2013-04-23 15:18:00,
2013-04-23 11:19:00,55.7,46.5,30.22,North,360,0.0,5.0,71,0.00,,---,0.00,VWS V13.01,2013-04-23 15:19:00,
2013-04-23 11:20:00,55.8,46.5,30.22,North,360,0.0,5.0,71,0.00,,---,0.00,VWS V13.01,2013-04-23 15:20:00,
2013-04-23 11:21:00,55.8,46.5,30.22,North,360,0.0,5.0,71,0.00,,---,0.00,VWS V13.01,2013-04-23 15:21:00,
2013-04-23 11:23:00,55.9,46.7,30.21,North,360,0.0,5.0,71,0.00,,---,0.00,VWS V13.01,2013-04-23 15:23:00,
2013-04-23 11:24:00,55.9,46.7,30.21,North,360,0.0,5.0,71,0.00,,---,0.00,VWS V13.01,2013-04-23 15:24:00,
2013-04-23 11:25:00,56.0,46.7,30.22,North,360,0.0,5.0,71,0.00,,---,0.00,VWS V13.01,2013-04-23 15:25:00,
2013-04-23 11:26:00,56.1,46.8,30.22,North,360,0.0,5.0,71,0.00,,---,0.00,VWS V13.01,2013-04-23 15:26:00,
2013-04-23 11:28:00,56.2,46.2,30.22,North,355,0.0,5.0,69,0.00,,---,0.00,VWS V13.01,2013-04-23 15:28:00,
2013-04-23 11:29:00,56.2,46.2,30.22,North,355,0.0,5.0,69,0.00,,---,0.00,VWS V13.01,2013-04-23 15:29:00,
2013-04-23 11:30:00,56.2,46.2,30.21,North,355,4.0,5.0,69,0.00,,---,0.00,VWS V13.01,2013-04-23 15:30:00,
2013-04-23 11:32:00,56.3,45.9,30.21,North,355,1.0,4.0,68,0.00,,---,0.00,VWS V13.01,2013-04-23 15:32:00,
2013-04-23 11:34:00,56.3,46.3,30.21,NNE,13,3.0,4.0,69,0.00,,---,0.00,VWS V13.01,2013-04-23 15:34:00,
2013-04-23 11:35:00,56.3,45.9,30.21,NNE,13,0.0,4.0,68,0.00,,---,0.00,VWS V13.01,2013-04-23 15:35:00,
2013-04-23 11:36:00,56.4,46.4,30.21,NNE,13,0.0,4.0,69,0.00,,---,0.00,VWS V13.01,2013-04-23 15:36:00,
2013-04-23 11:37:00,56.4,46.4,30.21,NNE,13,0.0,4.0,69,0.00,,---,0.00,VWS V13.01,2013-04-23 15:37:00,
2013-04-23 11:39:00,56.5,46.5,30.21,NNE,14,0.0,4.0,69,0.00,,---,0.00,VWS V13.01,2013-04-23 15:39:00,
2013-04-23 11:40:00,56.6,46.6,30.21,NNE,14,0.0,4.0,69,0.00,,---,0.00,VWS V13.01,2013-04-23 15:40:00,
2013-04-23 11:41:00,56.6,46.6,30.21,NNE,14,0.0,4.0,69,0.00,,---,0.00,VWS V13.01,2013-04-23 15:41:00,
2013-04-23 11:42:00,56.6,46.2,30.21,NNE,14,0.0,4.0,68,0.00,,---,0.00,VWS V13.01,2013-04-23 15:42:00,
2013-04-23 11:44:00,56.7,46.7,30.21,NNE,14,0.0,4.0,69,0.00,,---,0.00,VWS V13.01,2013-04-23 15:44:00,
2013-04-23 11:45:00,56.8,47.1,30.21,NNE,14,0.0,4.0,70,0.00,,---,0.00,VWS V13.01,2013-04-23 15:45:00,
2013-04-23 11:46:00,56.8,47.1,30.21,NNE,14,0.0,4.0,70,0.00,,---,0.00,VWS V13.01,2013-04-23 15:46:00,
2013-04-23 11:47:00,57.0,47.3,30.22,NNE,14,0.0,4.0,70,0.00,,---,0.00,VWS V13.01,2013-04-23 15:47:00,
2013-04-23 11:49:00,57.1,47.4,30.22,NNE,19,0.0,4.0,70,0.00,,---,0.00,VWS V13.01,2013-04-23 15:49:00,
2013-04-23 11:50:00,57.2,47.5,30.22,NNE,22,0.0,4.0,70,0.00,,---,0.00,VWS V13.01,2013-04-23 15:50:00,
2013-04-23 11:51:00,57.3,47.6,30.22,NNE,22,0.0,4.0,70,0.00,,---,0.00,VWS V13.01,2013-04-23 15:51:00,
2013-04-23 11:52:00,57.4,47.3,30.23,NNE,22,0.0,4.0,69,0.00,,---,0.00,VWS V13.01,2013-04-23 15:52:00,
2013-04-23 11:54:00,57.6,47.9,30.23,NNE,22,0.0,4.0,70,0.00,,---,0.00,VWS V13.01,2013-04-23 15:54:00,
2013-04-23 11:55:00,57.7,47.6,30.23,NNE,14,1.0,4.0,69,0.00,,---,0.00,VWS V13.01,2013-04-23 15:55:00,
2013-04-23 11:56:00,57.7,47.6,30.23,North,355,4.0,5.0,69,0.00,,---,0.00,VWS V13.01,2013-04-23 15:56:00,
2013-04-23 11:58:00,57.8,47.3,30.23,NNW,346,2.0,5.0,68,0.00,,---,0.00,VWS V13.01,2013-04-23 15:58:00,
2013-04-23 11:59:00,57.9,47.0,30.23,NNW,345,4.0,5.0,67,0.00,,---,0.00,VWS V13.01,2013-04-23 15:59:00,
2013-04-23 12:00:00,57.9,47.0,30.23,NNW,334,4.0,6.0,67,0.00,,---,0.00,VWS V13.01,2013-04-23 16:00:00,
2013-04-23 12:01:00,58.0,46.7,30.23,NNW,329,0.0,2.0,66,0.00,,---,0.00,VWS V13.01,2013-04-23 16:01:00,
2013-04-23 12:03:00,58.0,47.1,30.23,NW,321,0.0,6.0,67,0.00,,---,0.00,VWS V13.01,2013-04-23 16:03:00,
2013-04-23 12:04:00,58.0,46.7,30.23,NW,322,0.0,6.0,66,0.00,,---,0.00,VWS V13.01,2013-04-23 16:04:00,
2013-04-23 12:05:00,58.0,46.7,30.22,NW,322,1.0,6.0,66,0.00,,---,0.00,VWS V13.01,2013-04-23 16:05:00,
2013-04-23 12:06:00,58.1,46.8,30.22,NW,319,0.0,6.0,66,0.00,,---,0.00,VWS V13.01,2013-04-23 16:06:00,
2013-04-23 12:08:00,58.1,46.8,30.22,NW,310,1.0,6.0,66,0.00,,---,0.00,VWS V13.01,2013-04-23 16:08:00,
2013-04-23 12:09:00,58.2,46.9,30.22,NW,311,3.0,6.0,66,0.00,,---,0.00,VWS V13.01,2013-04-23 16:09:00,
2013-04-23 12:10:00,58.2,46.9,30.22,NW,311,2.0,6.0,66,0.00,,---,0.00,VWS V13.01,2013-04-23 16:10:00,
2013-04-23 12:12:00,58.3,47.0,30.22,NNW,327,1.0,6.0,66,0.00,,---,0.00,VWS V13.01,2013-04-23 16:12:00,
2013-04-23 12:13:00,58.4,47.1,30.22,NNW,328,0.0,6.0,66,0.00,,---,0.00,VWS V13.01,2013-04-23 16:13:00,
2013-04-23 12:14:00,58.4,47.1,30.22,NNW,328,0.0,6.0,66,0.00,,---,0.00,VWS V13.01,2013-04-23 16:14:00,
2013-04-23 12:15:00,58.5,47.2,30.22,NW,319,3.0,6.0,66,0.00,,---,0.00,VWS V13.01,2013-04-23 16:15:00,
2013-04-23 12:17:00,58.7,47.4,30.22,NW,313,2.0,6.0,66,0.00,,---,0.00,VWS V13.01,2013-04-23 16:17:00,
2013-04-23 12:18:00,58.9,47.6,30.22,WNW,294,3.0,8.0,66,0.00,,---,0.00,VWS V13.01,2013-04-23 16:18:00,
2013-04-23 12:19:00,59.0,47.3,30.22,WNW,294,0.0,8.0,65,0.00,,---,0.00,VWS V13.01,2013-04-23 16:19:00,
2013-04-23 12:20:00,59.0,47.3,30.21,WNW,294,0.0,8.0,65,0.00,,---,0.00,VWS V13.01,2013-04-23 16:20:00,
2013-04-23 12:21:00,59.0,46.8,30.21,SW,219,0.0,8.0,64,0.00,,---,0.00,VWS V13.01,2013-04-23 16:21:00,
2013-04-23 12:22:00,59.0,47.7,30.21,SW,218,0.0,8.0,66,0.00,,---,0.00,VWS V13.01,2013-04-23 16:22:00,
2013-04-23 12:23:00,59.0,47.7,30.21,NNW,342,5.0,8.0,66,0.00,,---,0.00,VWS V13.01,2013-04-23 16:23:00,
2013-04-23 12:24:00,59.2,47.5,30.21,North,351,3.0,8.0,65,0.00,,---,0.00,VWS V13.01,2013-04-23 16:24:00,
2013-04-23 12:25:00,59.3,47.5,30.21,North,351,3.0,8.0,65,0.00,,---,0.00,VWS V13.01,2013-04-23 16:25:00,
2013-04-23 12:26:00,59.5,47.3,30.21,North,349,2.0,8.0,64,0.00,,---,0.00,VWS V13.01,2013-04-23 16:26:00,
2013-04-23 12:28:00,59.6,47.4,30.20,North,350,0.0,8.0,64,0.00,,---,0.00,VWS V13.01,2013-04-23 16:28:00,
2013-04-23 12:30:00,59.8,47.2,30.20,ENE,60,4.0,8.0,63,0.00,,---,0.00,VWS V13.01,2013-04-23 16:30:00,
2013-04-23 12:31:00,59.9,47.3,30.20,ENE,63,0.0,0.0,63,0.00,,---,0.00,VWS V13.01,2013-04-23 16:31:00,
2013-04-23 12:33:00,60.0,47.4,30.20,ENE,63,1.0,4.0,63,0.00,,---,0.00,VWS V13.01,2013-04-23 16:33:00,
2013-04-23 12:35:00,60.3,48.5,30.20,ENE,66,2.0,4.0,65,0.00,,---,0.00,VWS V13.01,2013-04-23 16:35:00,
2013-04-23 12:36:00,60.4,47.8,30.20,ENE,65,0.0,4.0,63,0.00,,---,0.00,VWS V13.01,2013-04-23 16:36:00,
2013-04-23 12:38:00,60.8,48.1,30.20,ENE,67,1.0,4.0,63,0.00,,---,0.00,VWS V13.01,2013-04-23 16:38:00,
2013-04-23 12:39:00,60.8,47.7,30.20,ENE,67,2.0,4.0,62,0.00,,---,0.00,VWS V13.01,2013-04-23 16:39:00,
2013-04-23 12:40:00,61.0,48.3,30.20,ENE,63,0.0,4.0,63,0.00,,---,0.00,VWS V13.01,2013-04-23 16:40:00,
2013-04-23 12:41:00,61.1,47.6,30.20,ENE,60,4.0,4.0,61,0.00,,---,0.00,VWS V13.01,2013-04-23 16:41:00,
2013-04-23 12:43:00,61.3,47.8,30.20,ENE,59,0.0,4.0,61,0.00,,---,0.00,VWS V13.01,2013-04-23 16:43:00,
2013-04-23 12:44:00,61.4,47.8,30.20,ENE,59,0.0,4.0,61,0.00,,---,0.00,VWS V13.01,2013-04-23 16:44:00,
2013-04-23 12:45:00,61.4,47.8,30.20,ENE,59,3.0,5.0,61,0.00,,---,0.00,VWS V13.01,2013-04-23 16:45:00,
2013-04-23 12:46:00,61.6,48.5,30.20,ENE,59,0.0,5.0,62,0.00,,---,0.00,VWS V13.01,2013-04-23 16:46:00,
2013-04-23 12:48:00,61.8,48.2,30.19,ENE,59,0.0,5.0,61,0.00,,---,0.00,VWS V13.01,2013-04-23 16:48:00,
2013-04-23 12:49:00,61.9,47.9,30.19,ENE,67,2.0,5.0,60,0.00,,---,0.00,VWS V13.01,2013-04-23 16:49:00,
2013-04-23 12:50:00,62.0,48.4,30.19,ENE,76,0.0,5.0,61,0.00,,---,0.00,VWS V13.01,2013-04-23 16:50:00,
2013-04-23 12:51:00,62.0,47.5,30.19,ENE,57,1.0,5.0,59,0.00,,---,0.00,VWS V13.01,2013-04-23 16:51:00,
2013-04-23 12:53:00,62.1,48.1,30.19,ENE,63,0.0,5.0,60,0.00,,---,0.00,VWS V13.01,2013-04-23 16:53:00,
2013-04-23 12:54:00,62.3,48.2,30.19,NE,34,0.0,5.0,60,0.00,,---,0.00,VWS V13.01,2013-04-23 16:54:00,
2013-04-23 12:55:00,62.4,48.8,30.19,NE,53,0.0,5.0,61,0.00,,---,0.00,VWS V13.01,2013-04-23 16:55:00,
2013-04-23 12:56:00,62.4,48.3,30.19,NE,53,2.0,5.0,60,0.00,,---,0.00,VWS V13.01,2013-04-23 16:56:00,
2013-04-23 12:57:00,62.4,47.9,30.19,NE,54,0.0,5.0,59,0.00,,---,0.00,VWS V13.01,2013-04-23 16:57:00,
2013-04-23 12:59:00,62.5,47.1,30.19,NE,53,0.0,5.0,57,0.00,,---,0.00,VWS V13.01,2013-04-23 16:59:00,
2013-04-23 13:00:00,62.6,48.1,30.19,NE,53,0.0,5.0,59,0.00,,---,0.00,VWS V13.01,2013-04-23 17:00:00,
2013-04-23 13:01:00,62.7,47.3,30.19,NE,54,0.0,5.0,57,0.00,,---,0.00,VWS V13.01,2013-04-23 17:01:00,
2013-04-23 13:02:00,62.7,47.7,30.19,NE,53,0.0,0.0,58,0.00,,---,0.00,VWS V13.01,2013-04-23 17:02:00,
2013-04-23 13:04:00,62.8,47.4,30.19,NNE,12,1.0,5.0,57,0.00,,---,0.00,VWS V13.01,2013-04-23 17:04:00,
2013-04-23 13:05:00,62.9,47.9,30.19,ENE,57,3.0,5.0,58,0.00,,---,0.00,VWS V13.01,2013-04-23 17:05:00,
2013-04-23 13:06:00,63.0,48.0,30.18,ENE,61,0.0,5.0,58,0.00,,---,0.00,VWS V13.01,2013-04-23 17:06:00,
2013-04-23 13:07:00,63.1,48.1,30.18,NE,51,7.0,8.0,58,0.00,,---,0.00,VWS V13.01,2013-04-23 17:07:00,
2013-04-23 13:09:00,63.3,47.8,30.18,ENE,61,3.0,8.0,57,0.00,,---,0.00,VWS V13.01,2013-04-23 17:09:00,
2013-04-23 13:10:00,63.4,47.9,30.18,ENE,62,0.0,8.0,57,0.00,,---,0.00,VWS V13.01,2013-04-23 17:10:00,
2013-04-23 13:11:00,63.4,48.4,30.18,NNE,25,0.0,8.0,58,0.00,,---,0.00,VWS V13.01,2013-04-23 17:11:00,
2013-04-23 13:12:00,63.6,49.0,30.18,SE,140,2.0,8.0,59,0.00,,---,0.00,VWS V13.01,2013-04-23 17:12:00,
2013-04-23 13:14:00,63.8,48.3,30.18,ESE,108,4.0,8.0,57,0.00,,---,0.00,VWS V13.01,2013-04-23 17:14:00,
2013-04-23 13:15:00,63.8,47.8,30.18,SE,140,3.0,8.0,56,0.00,,---,0.00,VWS V13.01,2013-04-23 17:15:00,
2013-04-23 13:16:00,63.9,47.4,30.18,ESE,117,0.0,8.0,55,0.00,,---,0.00,VWS V13.01,2013-04-23 17:16:00,
2013-04-23 13:17:00,64.0,48.5,30.18,ESE,115,0.0,8.0,57,0.00,,---,0.00,VWS V13.01,2013-04-23 17:17:00,
2013-04-23 13:19:00,64.1,48.1,30.17,NNE,30,0.0,8.0,56,0.00,,---,0.00,VWS V13.01,2013-04-23 17:19:00,
2013-04-23 13:20:00,64.3,48.3,30.17,NE,53,5.0,8.0,56,0.00,,---,0.00,VWS V13.01,2013-04-23 17:20:00,
2013-04-23 13:21:00,64.4,48.8,30.17,NE,40,1.0,8.0,57,0.00,,---,0.00,VWS V13.01,2013-04-23 17:21:00,
2013-04-23 13:22:00,64.4,48.8,30.17,ENE,66,3.0,8.0,57,0.00,,---,0.00,VWS V13.01,2013-04-23 17:22:00,
2013-04-23 13:24:00,64.6,49.0,30.17,NE,36,3.0,8.0,57,0.00,,---,0.00,VWS V13.01,2013-04-23 17:24:00,
2013-04-23 13:26:00,64.7,48.7,30.17,NE,42,0.0,8.0,56,0.00,,---,0.00,VWS V13.01,2013-04-23 17:26:00,
2013-04-23 13:27:00,64.7,49.1,30.17,NE,42,0.0,8.0,57,0.00,,---,0.00,VWS V13.01,2013-04-23 17:27:00,
2013-04-23 13:29:00,64.9,49.3,30.17,NE,40,2.0,8.0,57,0.00,,---,0.00,VWS V13.01,2013-04-23 17:29:00,
2013-04-23 13:31:00,65.1,49.0,30.17,ESE,110,2.0,8.0,56,0.00,,---,0.00,VWS V13.01,2013-04-23 17:31:00,
2013-04-23 13:32:00,65.1,49.5,30.17,SE,138,0.0,2.0,57,0.00,,---,0.00,VWS V13.01,2013-04-23 17:32:00,
2013-04-23 13:34:00,65.2,48.2,30.16,NE,38,0.0,4.0,54,0.00,,---,0.00,VWS V13.01,2013-04-23 17:34:00,
2013-04-23 13:36:00,65.2,48.2,30.16,NNE,27,0.0,4.0,54,0.00,,---,0.00,VWS V13.01,2013-04-23 17:36:00,
2013-04-23 13:37:00,65.2,48.6,30.16,NNE,27,0.0,4.0,55,0.00,,---,0.00,VWS V13.01,2013-04-23 17:37:00,
2013-04-23 13:38:00,65.2,48.2,30.16,NNW,336,4.0,6.0,54,0.00,,---,0.00,VWS V13.01,2013-04-23 17:38:00,
2013-04-23 13:39:00,65.2,48.6,30.16,NNW,336,0.0,6.0,55,0.00,,---,0.00,VWS V13.01,2013-04-23 17:39:00,
2013-04-23 13:41:00,65.3,48.7,30.15,North,360,5.0,6.0,55,0.00,,---,0.00,VWS V13.01,2013-04-23 17:41:00,
2013-04-23 13:42:00,65.3,49.2,30.15,North,360,0.0,6.0,56,0.00,,---,0.00,VWS V13.01,2013-04-23 17:42:00,
2013-04-23 13:43:00,65.4,49.3,30.15,NE,51,3.0,9.0,56,0.00,,---,0.00,VWS V13.01,2013-04-23 17:43:00,
2013-04-23 13:44:00,65.5,49.4,30.15,ENE,65,3.0,9.0,56,0.00,,---,0.00,VWS V13.01,2013-04-23 17:44:00,
2013-04-23 13:46:00,65.5,48.9,30.15,ENE,66,0.0,9.0,55,0.00,,---,0.00,VWS V13.01,2013-04-23 17:46:00,
2013-04-23 13:47:00,65.6,48.5,30.15,ENE,61,0.0,9.0,54,0.00,,---,0.00,VWS V13.01,2013-04-23 17:47:00,
2013-04-23 13:48:00,65.6,49.0,30.15,ENE,71,0.0,9.0,55,0.00,,---,0.00,VWS V13.01,2013-04-23 17:48:00,
2013-04-23 13:49:00,65.7,49.1,30.15,ENE,76,4.0,9.0,55,0.00,,---,0.00,VWS V13.01,2013-04-23 17:49:00,
2013-04-23 13:51:00,65.8,49.2,30.15,ENE,74,2.0,9.0,55,0.00,,---,0.00,VWS V13.01,2013-04-23 17:51:00,
2013-04-23 13:52:00,65.9,49.3,30.15,ENE,74,2.0,9.0,55,0.00,,---,0.00,VWS V13.01,2013-04-23 17:52:00,
2013-04-23 13:54:00,65.9,49.3,30.15,ENE,74,0.0,9.0,55,0.00,,---,0.00,VWS V13.01,2013-04-23 17:54:00,
2013-04-23 13:57:00,66.1,49.0,30.15,East,82,0.0,9.0,54,0.00,,---,0.00,VWS V13.01,2013-04-23 17:57:00,
2013-04-23 13:59:00,66.1,49.5,30.15,East,83,1.0,9.0,55,0.00,,---,0.00,VWS V13.01,2013-04-23 17:59:00,
2013-04-23 14:00:00,66.1,50.0,30.15,ESE,117,2.0,9.0,56,0.00,,---,0.00,VWS V13.01,2013-04-23 18:00:00,
2013-04-23 14:02:00,66.2,49.6,30.15,ESE,120,0.0,1.0,55,0.00,,---,0.00,VWS V13.01,2013-04-23 18:02:00,
2013-04-23 14:04:00,66.3,49.7,30.15,ENE,75,3.0,5.0,55,0.00,,---,0.00,VWS V13.01,2013-04-23 18:04:00,
2013-04-23 14:05:00,66.5,50.3,30.15,ESE,118,3.0,5.0,56,0.00,,---,0.00,VWS V13.01,2013-04-23 18:05:00,
2013-04-23 14:07:00,66.6,50.4,30.14,SE,131,0.0,5.0,56,0.00,,---,0.00,VWS V13.01,2013-04-23 18:07:00,
2013-04-23 14:09:00,66.7,50.5,30.14,ESE,116,0.0,5.0,56,0.00,,---,0.00,VWS V13.01,2013-04-23 18:09:00,
2013-04-23 14:10:00,66.7,49.5,30.14,ESE,121,2.0,5.0,54,0.00,,---,0.00,VWS V13.01,2013-04-23 18:10:00,
2013-04-23 14:12:00,66.8,50.6,30.14,SE,132,0.0,5.0,56,0.00,,---,0.00,VWS V13.01,2013-04-23 18:12:00,
2013-04-23 14:13:00,66.9,50.7,30.14,ESE,118,1.0,5.0,56,0.00,,---,0.00,VWS V13.01,2013-04-23 18:13:00,
2013-04-23 14:14:00,67.0,50.3,30.14,ESE,113,4.0,5.0,55,0.00,,---,0.00,VWS V13.01,2013-04-23 18:14:00,
2013-04-23 14:15:00,67.0,49.8,30.14,SSE,148,0.0,5.0,54,0.00,,---,0.00,VWS V13.01,2013-04-23 18:15:00,
2013-04-23 14:17:00,67.1,49.9,30.14,SSE,152,0.0,5.0,54,0.00,,---,0.00,VWS V13.01,2013-04-23 18:17:00,
2013-04-23 14:18:00,67.1,49.9,30.14,SSE,152,0.0,5.0,54,0.00,,---,0.00,VWS V13.01,2013-04-23 18:18:00,
2013-04-23 14:19:00,67.2,50.0,30.14,SSE,148,3.0,5.0,54,0.00,,---,0.00,VWS V13.01,2013-04-23 18:19:00,
2013-04-23 14:21:00,67.3,50.6,30.14,NW,311,0.0,5.0,55,0.00,,---,0.00,VWS V13.01,2013-04-23 18:21:00,
2013-04-23 14:22:00,67.3,50.6,30.13,West,277,0.0,5.0,55,0.00,,---,0.00,VWS V13.01,2013-04-23 18:22:00,
2013-04-23 14:24:00,67.4,51.2,30.13,East,95,3.0,5.0,56,0.00,,---,0.00,VWS V13.01,2013-04-23 18:24:00,
2013-04-23 14:26:00,67.5,51.3,30.13,South,178,2.0,5.0,56,0.00,,---,0.00,VWS V13.01,2013-04-23 18:26:00,
2013-04-23 14:27:00,67.6,50.9,30.13,South,175,0.0,5.0,55,0.00,,---,0.00,VWS V13.01,2013-04-23 18:27:00,
2013-04-23 14:28:00,67.6,50.9,30.13,South,175,0.0,5.0,55,0.00,,---,0.00,VWS V13.01,2013-04-23 18:28:00,
2013-04-23 14:29:00,67.6,51.4,30.13,ESE,115,4.0,5.0,56,0.00,,---,0.00,VWS V13.01,2013-04-23 18:29:00,
2013-04-23 14:31:00,67.7,51.5,30.13,ESE,114,0.0,1.0,56,0.00,,---,0.00,VWS V13.01,2013-04-23 18:31:00,
2013-04-23 14:32:00,67.7,51.5,30.13,SSE,166,1.0,1.0,56,0.00,,---,0.00,VWS V13.01,2013-04-23 18:32:00,
2013-04-23 14:33:00,67.7,51.9,30.13,South,173,3.0,3.0,57,0.00,,---,0.00,VWS V13.01,2013-04-23 18:33:00,
2013-04-23 14:34:00,67.8,52.0,30.14,SSE,166,1.0,3.0,57,0.00,,---,0.00,VWS V13.01,2013-04-23 18:34:00,
2013-04-23 14:37:00,67.9,51.2,30.13,South,173,0.0,4.0,55,0.00,,---,0.00,VWS V13.01,2013-04-23 18:37:00,
2013-04-23 14:38:00,68.0,51.2,30.13,South,180,3.0,5.0,55,0.00,,---,0.00,VWS V13.01,2013-04-23 18:38:00,
2013-04-23 14:39:00,68.0,51.7,30.13,SSE,163,1.0,5.0,56,0.00,,---,0.00,VWS V13.01,2013-04-23 18:39:00,
2013-04-23 14:42:00,68.3,52.0,30.13,South,176,0.0,5.0,56,0.00,,---,0.00,VWS V13.01,2013-04-23 18:42:00,
2013-04-23 14:43:00,68.3,51.5,30.13,South,176,0.0,5.0,55,0.00,,---,0.00,VWS V13.01,2013-04-23 18:43:00,
2013-04-23 14:44:00,68.4,51.6,30.13,South,176,1.0,5.0,55,0.00,,---,0.00,VWS V13.01,2013-04-23 18:44:00,
2013-04-23 14:47:00,68.6,51.3,30.13,East,91,0.0,5.0,54,0.00,,---,0.00,VWS V13.01,2013-04-23 18:47:00,
2013-04-23 14:48:00,68.6,51.3,30.13,East,91,0.0,5.0,54,0.00,,---,0.00,VWS V13.01,2013-04-23 18:48:00,
2013-04-23 14:49:00,68.7,51.9,30.13,East,83,0.0,5.0,55,0.00,,---,0.00,VWS V13.01,2013-04-23 18:49:00,
2013-04-23 14:53:00,68.7,51.4,30.13,NE,53,0.0,5.0,54,0.00,,---,0.00,VWS V13.01,2013-04-23 18:53:00,
2013-04-23 14:54:00,68.7,51.9,30.13,NE,53,0.0,5.0,55,0.00,,---,0.00,VWS V13.01,2013-04-23 18:54:00,
2013-04-23 14:55:00,68.8,52.0,30.13,NE,53,0.0,5.0,55,0.00,,---,0.00,VWS V13.01,2013-04-23 18:55:00,
2013-04-23 14:58:00,68.9,51.6,30.12,SW,215,0.0,5.0,54,0.00,,---,0.00,VWS V13.01,2013-04-23 18:58:00,
2013-04-23 14:59:00,68.9,51.6,30.12,WSW,246,0.0,5.0,54,0.00,,---,0.00,VWS V13.01,2013-04-23 18:59:00,
2013-04-23 15:00:00,68.9,52.1,30.13,SW,216,0.0,5.0,55,0.00,,---,0.00,VWS V13.01,2013-04-23 19:00:00,
2013-04-23 15:03:00,69.2,51.9,30.12,West,277,1.0,3.0,54,0.00,,---,0.00,VWS V13.01,2013-04-23 19:03:00,
2013-04-23 15:04:00,69.2,51.9,30.12,WNW,282,0.0,3.0,54,0.00,,---,0.00,VWS V13.01,2013-04-23 19:04:00,
2013-04-23 15:05:00,69.2,51.9,30.12,WNW,285,0.0,3.0,54,0.00,,---,0.00,VWS V13.01,2013-04-23 19:05:00,
2013-04-23 15:06:00,69.2,52.8,30.12,NW,306,3.0,3.0,56,0.00,,---,0.00,VWS V13.01,2013-04-23 19:06:00,
2013-04-23 15:08:00,69.3,51.5,30.12,NE,34,0.0,4.0,53,0.00,,---,0.00,VWS V13.01,2013-04-23 19:08:00,
2013-04-23 15:09:00,69.2,51.9,30.12,NNE,33,3.0,4.0,54,0.00,,---,0.00,VWS V13.01,2013-04-23 19:09:00,
2013-04-23 15:10:00,69.2,52.8,30.12,NE,47,4.0,5.0,56,0.00,,---,0.00,VWS V13.01,2013-04-23 19:10:00,
2013-04-23 15:11:00,69.2,52.8,30.12,NE,48,3.0,5.0,56,0.00,,---,0.00,VWS V13.01,2013-04-23 19:11:00,
2013-04-23 15:13:00,69.2,51.9,30.12,NE,48,0.0,5.0,54,0.00,,---,0.00,VWS V13.01,2013-04-23 19:13:00,
2013-04-23 15:14:00,69.2,52.4,30.12,NE,48,0.0,5.0,55,0.00,,---,0.00,VWS V13.01,2013-04-23 19:14:00,
2013-04-23 15:15:00,69.2,52.4,30.12,ESE,102,2.0,6.0,55,0.00,,---,0.00,VWS V13.01,2013-04-23 19:15:00,
2013-04-23 15:16:00,69.2,52.4,30.12,NNE,17,3.0,6.0,55,0.00,,---,0.00,VWS V13.01,2013-04-23 19:16:00,
2013-04-23 15:18:00,69.3,53.4,30.11,NE,56,1.0,6.0,57,0.00,,---,0.00,VWS V13.01,2013-04-23 19:18:00,
2013-04-23 15:19:00,69.3,53.4,30.11,SE,126,3.0,6.0,57,0.00,,---,0.00,VWS V13.01,2013-04-23 19:19:00,
2013-04-23 15:20:00,69.3,53.0,30.12,ESE,108,0.0,6.0,56,0.00,,---,0.00,VWS V13.01,2013-04-23 19:20:00,
2013-04-23 15:21:00,69.3,52.5,30.11,SE,144,7.0,7.0,55,0.00,,---,0.00,VWS V13.01,2013-04-23 19:21:00,
2013-04-23 15:23:00,69.3,52.0,30.11,ESE,108,0.0,7.0,54,0.00,,---,0.00,VWS V13.01,2013-04-23 19:23:00,
2013-04-23 15:24:00,69.3,52.0,30.11,ENE,65,0.0,7.0,54,0.00,,---,0.00,VWS V13.01,2013-04-23 19:24:00,
2013-04-23 15:25:00,69.3,52.0,30.11,ENE,65,2.0,7.0,54,0.00,,---,0.00,VWS V13.01,2013-04-23 19:25:00,
2013-04-23 15:26:00,69.2,51.9,30.11,ENE,65,0.0,7.0,54,0.00,,---,0.00,VWS V13.01,2013-04-23 19:26:00,
2013-04-23 15:28:00,69.1,51.8,30.11,ESE,119,1.0,7.0,54,0.00,,---,0.00,VWS V13.01,2013-04-23 19:28:00,
2013-04-23 15:29:00,69.1,51.8,30.11,SE,129,0.0,7.0,54,0.00,,---,0.00,VWS V13.01,2013-04-23 19:29:00,
2013-04-23 15:30:00,69.1,51.8,30.11,SE,129,0.0,7.0,54,0.00,,---,0.00,VWS V13.01,2013-04-23 19:30:00,
2013-04-23 15:31:00,69.1,51.8,30.11,SE,129,0.0,0.0,54,0.00,,---,0.00,VWS V13.01,2013-04-23 19:31:00,
2013-04-23 15:33:00,69.0,51.7,30.10,SE,130,0.0,0.0,54,0.00,,---,0.00,VWS V13.01,2013-04-23 19:33:00,
2013-04-23 15:34:00,69.0,52.2,30.10,South,172,6.0,6.0,55,0.00,,---,0.00,VWS V13.01,2013-04-23 19:34:00,
2013-04-23 15:35:00,69.0,52.2,30.10,SE,137,5.0,6.0,55,0.00,,---,0.00,VWS V13.01,2013-04-23 19:35:00,
2013-04-23 15:36:00,69.1,52.3,30.10,SE,137,0.0,6.0,55,0.00,,---,0.00,VWS V13.01,2013-04-23 19:36:00,
2013-04-23 15:39:00,69.1,51.8,30.10,ENE,60,2.0,6.0,54,0.00,,---,0.00,VWS V13.01,2013-04-23 19:39:00,
2013-04-23 15:40:00,69.1,52.8,30.10,ENE,59,0.0,6.0,56,0.00,,---,0.00,VWS V13.01,2013-04-23 19:40:00,
2013-04-23 15:42:00,69.2,53.3,30.10,ESE,102,5.0,7.0,57,0.00,,---,0.00,VWS V13.01,2013-04-23 19:42:00,
2013-04-23 15:44:00,69.2,52.4,30.10,ENE,74,0.0,7.0,55,0.00,,---,0.00,VWS V13.01,2013-04-23 19:44:00,
2013-04-23 15:45:00,69.3,53.4,30.10,ENE,72,2.0,7.0,57,0.00,,---,0.00,VWS V13.01,2013-04-23 19:45:00,
2013-04-23 15:47:00,69.2,52.4,30.10,NE,51,1.0,7.0,55,0.00,,---,0.00,VWS V13.01,2013-04-23 19:47:00,
2013-04-23 15:49:00,69.3,52.5,30.10,North,360,1.0,7.0,55,0.00,,---,0.00,VWS V13.01,2013-04-23 19:49:00,
2013-04-23 15:50:00,69.3,52.0,30.10,North,360,0.0,7.0,54,0.00,,---,0.00,VWS V13.01,2013-04-23 19:50:00,
2013-04-23 15:52:00,69.4,52.5,30.10,North,360,0.0,7.0,55,0.00,,---,0.00,VWS V13.01,2013-04-23 19:52:00,
2013-04-23 15:54:00,69.4,52.5,30.09,North,5,0.0,7.0,55,0.00,,---,0.00,VWS V13.01,2013-04-23 19:54:00,
2013-04-23 15:55:00,69.5,52.6,30.09,ENE,74,1.0,7.0,55,0.00,,---,0.00,VWS V13.01,2013-04-23 19:55:00,
2013-04-23 15:57:00,69.5,53.1,30.09,SE,133,4.0,10.0,56,0.00,,---,0.00,VWS V13.01,2013-04-23 19:57:00,
2013-04-23 15:59:00,69.7,53.3,30.09,South,180,0.0,10.0,56,0.00,,---,0.00,VWS V13.01,2013-04-23 19:59:00,
2013-04-23 16:00:00,69.7,52.8,30.09,ENE,61,0.0,10.0,55,0.00,,---,0.00,VWS V13.01,2013-04-23 20:00:00,
2013-04-23 16:02:00,69.8,53.4,30.09,East,83,1.0,1.0,56,0.00,,---,0.00,VWS V13.01,2013-04-23 20:02:00,
2013-04-23 16:05:00,69.9,54.0,30.09,SSE,162,1.0,3.0,57,0.00,,---,0.00,VWS V13.01,2013-04-23 20:05:00,
2013-04-23 16:06:00,69.9,54.0,30.09,SSW,205,4.0,7.0,57,0.00,,---,0.00,VWS V13.01,2013-04-23 20:06:00,
2013-04-23 16:07:00,69.9,53.0,30.09,South,186,0.0,7.0,55,0.00,,---,0.00,VWS V13.01,2013-04-23 20:07:00,
2013-04-23 16:10:00,69.9,53.0,30.09,West,267,0.0,7.0,55,0.00,,---,0.00,VWS V13.01,2013-04-23 20:10:00,
2013-04-23 16:11:00,69.9,52.5,30.09,West,267,0.0,7.0,54,0.00,,---,0.00,VWS V13.01,2013-04-23 20:11:00,
2013-04-23 16:12:00,69.9,53.0,30.09,West,267,0.0,7.0,55,0.00,,---,0.00,VWS V13.01,2013-04-23 20:12:00,
2013-04-23 16:13:00,69.9,53.0,30.09,West,267,0.0,7.0,55,0.00,,---,0.00,VWS V13.01,2013-04-23 20:13:00,
2013-04-23 16:15:00,69.8,52.4,30.09,WSW,237,2.0,7.0,54,0.00,,---,0.00,VWS V13.01,2013-04-23 20:15:00,
2013-04-23 16:16:00,69.8,52.4,30.09,WSW,238,0.0,7.0,54,0.00,,---,0.00,VWS V13.01,2013-04-23 20:16:00,
2013-04-23 16:17:00,69.8,52.9,30.09,SSW,209,0.0,7.0,55,0.00,,---,0.00,VWS V13.01,2013-04-23 20:17:00,
2013-04-23 16:18:00,69.8,52.9,30.09,SSW,209,0.0,7.0,55,0.00,,---,0.00,VWS V13.01,2013-04-23 20:18:00,
2013-04-23 16:20:00,69.7,52.8,30.09,SSW,209,0.0,7.0,55,0.00,,---,0.00,VWS V13.01,2013-04-23 20:20:00,
2013-04-23 16:21:00,69.7,52.8,30.09,SSW,209,0.0,7.0,55,0.00,,---,0.00,VWS V13.01,2013-04-23 20:21:00,
2013-04-23 16:22:00,69.6,53.2,30.09,SSW,209,0.0,7.0,56,0.00,,---,0.00,VWS V13.01,2013-04-23 20:22:00,
2013-04-23 16:23:00,69.6,53.2,30.09,SSW,209,0.0,7.0,56,0.00,,---,0.00,VWS V13.01,2013-04-23 20:23:00,
2013-04-23 16:26:00,69.5,52.6,30.08,SSW,209,0.0,7.0,55,0.00,,---,0.00,VWS V13.01,2013-04-23 20:26:00,
2013-04-23 16:27:00,69.5,52.6,30.08,SSW,209,0.0,7.0,55,0.00,,---,0.00,VWS V13.01,2013-04-23 20:27:00,
2013-04-23 16:28:00,69.5,52.6,30.08,SSW,209,0.0,7.0,55,0.00,,---,0.00,VWS V13.01,2013-04-23 20:28:00,
2013-04-23 16:31:00,69.4,53.0,30.08,SSW,209,0.0,7.0,56,0.00,,---,0.00,VWS V13.01,2013-04-23 20:31:00,
2013-04-23 16:32:00,69.4,53.0,30.08,SSW,209,0.0,1.0,56,0.00,,---,0.00,VWS V13.01,2013-04-23 20:32:00,
2013-04-23 16:33:00,69.3,53.0,30.08,SSW,209,0.0,1.0,56,0.00,,---,0.00,VWS V13.01,2013-04-23 20:33:00,
2013-04-23 16:36:00,69.2,52.4,30.08,SSW,209,0.0,1.0,55,0.00,,---,0.00,VWS V13.01,2013-04-23 20:36:00,
2013-04-23 16:37:00,69.1,52.8,30.08,SSW,209,0.0,1.0,56,0.00,,---,0.00,VWS V13.01,2013-04-23 20:37:00,
2013-04-23 16:38:00,69.1,52.8,30.08,SSW,209,0.0,1.0,56,0.00,,---,0.00,VWS V13.01,2013-04-23 20:38:00,
2013-04-23 16:41:00,69.0,52.7,30.08,SSW,209,0.0,2.0,56,0.00,,---,0.00,VWS V13.01,2013-04-23 20:41:00,
2013-04-23 16:42:00,68.9,53.1,30.08,SSW,209,0.0,2.0,57,0.00,,---,0.00,VWS V13.01,2013-04-23 20:42:00,
2013-04-23 16:43:00,68.9,53.5,30.08,SSW,209,0.0,2.0,58,0.00,,---,0.00,VWS V13.01,2013-04-23 20:43:00,
2013-04-23 16:46:00,68.8,53.0,30.08,SSW,209,0.0,3.0,57,0.00,,---,0.00,VWS V13.01,2013-04-23 20:46:00,
2013-04-23 16:47:00,68.8,53.0,30.07,SSW,209,3.0,3.0,57,0.00,,---,0.00,VWS V13.01,2013-04-23 20:47:00,
2013-04-23 16:48:00,68.7,52.4,30.07,SSW,209,0.0,3.0,56,0.00,,---,0.00,VWS V13.01,2013-04-23 20:48:00,
2013-04-23 16:51:00,68.6,52.8,30.07,SSW,209,2.0,3.0,57,0.00,,---,0.00,VWS V13.01,2013-04-23 20:51:00,
2013-04-23 16:52:00,68.6,52.3,30.08,SSW,209,0.0,3.0,56,0.00,,---,0.00,VWS V13.01,2013-04-23 20:52:00,
2013-04-23 16:53:00,68.6,52.3,30.08,SSW,209,0.0,3.0,56,0.00,,---,0.00,VWS V13.01,2013-04-23 20:53:00,
2013-04-23 16:56:00,68.6,52.8,30.08,SSW,209,0.0,3.0,57,0.00,,---,0.00,VWS V13.01,2013-04-23 20:56:00,
2013-04-23 16:57:00,68.6,52.8,30.08,SSW,209,0.0,3.0,57,0.00,,---,0.00,VWS V13.01,2013-04-23 20:57:00,
2013-04-23 16:58:00,68.6,52.8,30.08,SSW,209,1.0,3.0,57,0.00,,---,0.00,VWS V13.01,2013-04-23 20:58:00,
2013-04-23 17:01:00,68.6,52.8,30.08,SSE,153,3.0,9.0,57,0.00,,---,0.00,VWS V13.01,2013-04-23 21:01:00,
2013-04-23 17:02:00,68.6,52.8,30.08,South,186,0.0,3.0,57,0.00,,---,0.00,VWS V13.01,2013-04-23 21:02:00,
2013-04-23 17:03:00,68.5,52.7,30.08,SSW,195,0.0,6.0,57,0.00,,---,0.00,VWS V13.01,2013-04-23 21:03:00,
2013-04-23 17:04:00,68.5,52.7,30.08,SSE,160,0.0,6.0,57,0.00,,---,0.00,VWS V13.01,2013-04-23 21:04:00,
2013-04-23 17:06:00,68.5,52.7,30.08,SE,138,1.0,6.0,57,0.00,,---,0.00,VWS V13.01,2013-04-23 21:06:00,
2013-04-23 17:07:00,68.5,52.7,30.08,SE,138,0.0,6.0,57,0.00,,---,0.00,VWS V13.01,2013-04-23 21:07:00,
2013-04-23 17:09:00,68.5,52.7,30.08,SSW,192,0.0,6.0,57,0.00,,---,0.00,VWS V13.01,2013-04-23 21:09:00,
2013-04-23 17:11:00,68.6,52.8,30.08,SE,134,0.0,7.0,57,0.00,,---,0.00,VWS V13.01,2013-04-23 21:11:00,
2013-04-23 17:12:00,68.6,52.8,30.08,SE,138,0.0,7.0,57,0.00,,---,0.00,VWS V13.01,2013-04-23 21:12:00,
2013-04-23 17:14:00,68.6,52.8,30.08,SE,139,0.0,7.0,57,0.00,,---,0.00,VWS V13.01,2013-04-23 21:14:00,
2013-04-23 17:16:00,68.6,52.3,30.07,SSE,165,1.0,7.0,56,0.00,,---,0.00,VWS V13.01,2013-04-23 21:16:00,
2013-04-23 17:17:00,68.6,52.3,30.07,SSE,165,0.0,7.0,56,0.00,,---,0.00,VWS V13.01,2013-04-23 21:17:00,
2013-04-23 17:19:00,68.6,52.3,30.07,SSE,156,0.0,7.0,56,0.00,,---,0.00,VWS V13.01,2013-04-23 21:19:00,
2013-04-23 17:20:00,68.6,52.3,30.07,SSE,156,0.0,7.0,56,0.00,,---,0.00,VWS V13.01,2013-04-23 21:20:00,
2013-04-23 17:22:00,68.6,52.8,30.07,ENE,71,0.0,7.0,57,0.00,,---,0.00,VWS V13.01,2013-04-23 21:22:00,
2013-04-23 17:24:00,68.6,52.3,30.07,ENE,63,2.0,7.0,56,0.00,,---,0.00,VWS V13.01,2013-04-23 21:24:00,
2013-04-23 17:25:00,68.6,52.3,30.07,ENE,63,0.0,7.0,56,0.00,,---,0.00,VWS V13.01,2013-04-23 21:25:00,
2013-04-23 17:27:00,68.6,52.3,30.07,ENE,63,0.0,7.0,56,0.00,,---,0.00,VWS V13.01,2013-04-23 21:27:00,
2013-04-23 17:29:00,68.6,52.8,30.07,West,281,1.0,7.0,57,0.00,,---,0.00,VWS V13.01,2013-04-23 21:29:00,
2013-04-23 17:30:00,68.6,52.3,30.07,West,267,1.0,7.0,56,0.00,,---,0.00,VWS V13.01,2013-04-23 21:30:00,
2013-04-23 17:32:00,68.7,52.4,30.07,West,267,0.0,0.0,56,0.00,,---,0.00,VWS V13.01,2013-04-23 21:32:00,
2013-04-23 17:33:00,68.7,52.4,30.07,West,267,0.0,1.0,56,0.00,,---,0.00,VWS V13.01,2013-04-23 21:33:00,
2013-04-23 17:34:00,68.8,52.5,30.07,West,267,0.0,1.0,56,0.00,,---,0.00,VWS V13.01,2013-04-23 21:34:00,
2013-04-23 17:35:00,68.8,53.0,30.07,West,267,0.0,1.0,57,0.00,,---,0.00,VWS V13.01,2013-04-23 21:35:00,
2013-04-23 17:37:00,68.9,53.1,30.07,West,267,0.0,2.0,57,0.00,,---,0.00,VWS V13.01,2013-04-23 21:37:00,
2013-04-23 17:38:00,68.9,53.1,30.07,West,267,0.0,2.0,57,0.00,,---,0.00,VWS V13.01,2013-04-23 21:38:00,
2013-04-23 17:39:00,69.0,52.7,30.07,West,267,1.0,3.0,56,0.00,,---,0.00,VWS V13.01,2013-04-23 21:39:00,
2013-04-23 17:40:00,69.0,52.7,30.07,South,175,2.0,6.0,56,0.00,,---,0.00,VWS V13.01,2013-04-23 21:40:00,
2013-04-23 17:42:00,69.0,52.7,30.07,SSW,198,3.0,8.0,56,0.00,,---,0.00,VWS V13.01,2013-04-23 21:42:00,
2013-04-23 17:43:00,69.1,52.8,30.07,SSW,205,4.0,8.0,56,0.00,,---,0.00,VWS V13.01,2013-04-23 21:43:00,
2013-04-23 17:44:00,69.1,52.3,30.07,SSW,203,0.0,8.0,55,0.00,,---,0.00,VWS V13.01,2013-04-23 21:44:00,
2013-04-23 17:45:00,69.1,52.3,30.07,SSW,203,0.0,8.0,55,0.00,,---,0.00,VWS V13.01,2013-04-23 21:45:00,
2013-04-23 17:47:00,69.1,52.8,30.07,SSW,203,0.0,8.0,56,0.00,,---,0.00,VWS V13.01,2013-04-23 21:47:00,
2013-04-23 17:48:00,69.1,52.8,30.07,SSW,198,3.0,8.0,56,0.00,,---,0.00,VWS V13.01,2013-04-23 21:48:00,
2013-04-23 17:49:00,69.2,52.8,30.07,SSE,165,3.0,8.0,56,0.00,,---,0.00,VWS V13.01,2013-04-23 21:49:00,
2013-04-23 17:50:00,69.1,52.3,30.07,SSE,151,0.0,8.0,55,0.00,,---,0.00,VWS V13.01,2013-04-23 21:50:00,
2013-04-23 17:53:00,69.1,52.8,30.07,SSE,159,1.0,8.0,56,0.00,,---,0.00,VWS V13.01,2013-04-23 21:53:00,
2013-04-23 17:54:00,69.2,53.8,30.07,SSE,159,0.0,8.0,58,0.00,,---,0.00,VWS V13.01,2013-04-23 21:54:00,
2013-04-23 17:56:00,69.2,53.8,30.07,SW,217,2.0,8.0,58,0.00,,---,0.00,VWS V13.01,2013-04-23 21:56:00,
2013-04-23 17:58:00,69.2,52.8,30.07,SSW,211,0.0,8.0,56,0.00,,---,0.00,VWS V13.01,2013-04-23 21:58:00,
2013-04-23 17:59:00,69.2,53.3,30.07,SSW,213,1.0,8.0,57,0.00,,---,0.00,VWS V13.01,2013-04-23 21:59:00,
2013-04-23 18:01:00,69.3,53.0,30.07,SSW,212,0.0,8.0,56,0.00,,---,0.00,VWS V13.01,2013-04-23 22:01:00,
2013-04-23 18:03:00,69.3,53.0,30.07,South,182,0.0,1.0,56,0.00,,---,0.00,VWS V13.01,2013-04-23 22:03:00,
2013-04-23 18:04:00,69.3,53.0,30.07,SSE,163,0.0,1.0,56,0.00,,---,0.00,VWS V13.01,2013-04-23 22:04:00,
2013-04-23 18:06:00,69.3,53.0,30.07,SSE,163,0.0,3.0,56,0.00,,---,0.00,VWS V13.01,2013-04-23 22:06:00,
2013-04-23 18:08:00,69.3,52.5,30.07,SSE,160,1.0,3.0,55,0.00,,---,0.00,VWS V13.01,2013-04-23 22:08:00,
2013-04-23 18:09:00,69.3,53.0,30.07,SSE,160,1.0,3.0,56,0.00,,---,0.00,VWS V13.01,2013-04-23 22:09:00,
2013-04-23 18:10:00,69.3,53.4,30.07,SE,127,1.0,4.0,57,0.00,,---,0.00,VWS V13.01,2013-04-23 22:10:00,
2013-04-23 18:11:00,69.2,52.8,30.07,SE,137,2.0,6.0,56,0.00,,---,0.00,VWS V13.01,2013-04-23 22:11:00,
2013-04-23 18:13:00,69.2,52.8,30.07,SSE,166,0.0,6.0,56,0.00,,---,0.00,VWS V13.01,2013-04-23 22:13:00,
2013-04-23 18:14:00,69.2,52.8,30.06,SSE,160,0.0,6.0,56,0.00,,---,0.00,VWS V13.01,2013-04-23 22:14:00,
2013-04-23 18:15:00,69.2,53.3,30.07,SSE,160,0.0,6.0,57,0.00,,---,0.00,VWS V13.01,2013-04-23 22:15:00,
2013-04-23 18:16:00,69.1,53.2,30.06,SSE,160,0.0,6.0,57,0.00,,---,0.00,VWS V13.01,2013-04-23 22:16:00,
2013-04-23 18:18:00,69.1,53.2,30.06,South,169,0.0,6.0,57,0.00,,---,0.00,VWS V13.01,2013-04-23 22:18:00,
2013-04-23 18:19:00,69.0,53.2,30.06,South,170,0.0,6.0,57,0.00,,---,0.00,VWS V13.01,2013-04-23 22:19:00,
2013-04-23 18:20:00,69.0,53.6,30.06,SE,140,3.0,6.0,58,0.00,,---,0.00,VWS V13.01,2013-04-23 22:20:00,
2013-04-23 18:21:00,69.0,53.2,30.06,SE,140,0.0,6.0,57,0.00,,---,0.00,VWS V13.01,2013-04-23 22:21:00,
2013-04-23 18:23:00,68.9,53.1,30.07,SW,221,0.0,6.0,57,0.00,,---,0.00,VWS V13.01,2013-04-23 22:23:00,
2013-04-23 18:24:00,68.9,53.1,30.07,SSW,208,2.0,6.0,57,0.00,,---,0.00,VWS V13.01,2013-04-23 22:24:00,
2013-04-23 18:25:00,68.8,53.0,30.07,SSW,208,0.0,6.0,57,0.00,,---,0.00,VWS V13.01,2013-04-23 22:25:00,
2013-04-23 18:26:00,68.7,53.3,30.07,SSW,208,0.0,6.0,58,0.00,,---,0.00,VWS V13.01,2013-04-23 22:26:00,
2013-04-23 18:29:00,68.6,53.2,30.06,SSW,209,0.0,6.0,58,0.00,,---,0.00,VWS V13.01,2013-04-23 22:29:00,
2013-04-23 18:30:00,68.5,53.2,30.06,South,191,0.0,6.0,58,0.00,,---,0.00,VWS V13.01,2013-04-23 22:30:00,
2013-04-23 18:31:00,68.5,53.2,30.06,SSE,160,2.0,3.0,58,0.00,,---,0.00,VWS V13.01,2013-04-23 22:31:00,
2013-04-23 18:34:00,68.3,53.0,30.06,SSW,192,0.0,3.0,58,0.00,,---,0.00,VWS V13.01,2013-04-23 22:34:00,
2013-04-23 18:35:00,68.3,53.0,30.06,South,188,0.0,3.0,58,0.00,,---,0.00,VWS V13.01,2013-04-23 22:35:00,
2013-04-23 18:36:00,68.2,52.9,30.06,SSE,161,0.0,5.0,58,0.00,,---,0.00,VWS V13.01,2013-04-23 22:36:00,
2013-04-23 18:39:00,68.0,52.7,30.06,SSW,212,0.0,6.0,58,0.00,,---,0.00,VWS V13.01,2013-04-23 22:39:00,
2013-04-23 18:40:00,68.0,52.7,30.06,SSW,207,0.0,6.0,58,0.00,,---,0.00,VWS V13.01,2013-04-23 22:40:00,
2013-04-23 18:41:00,68.0,52.7,30.06,South,176,0.0,6.0,58,0.00,,---,0.00,VWS V13.01,2013-04-23 22:41:00,
2013-04-23 18:44:00,67.9,52.6,30.06,SSW,199,0.0,6.0,58,0.00,,---,0.00,VWS V13.01,2013-04-23 22:44:00,
2013-04-23 18:45:00,67.8,52.5,30.06,SSW,199,0.0,6.0,58,0.00,,---,0.00,VWS V13.01,2013-04-23 22:45:00,
2013-04-23 18:47:00,67.7,52.9,30.06,South,169,0.0,6.0,59,0.00,,---,0.00,VWS V13.01,2013-04-23 22:47:00,
2013-04-23 18:49:00,67.6,52.8,30.06,South,170,0.0,6.0,59,0.00,,---,0.00,VWS V13.01,2013-04-23 22:49:00,
2013-04-23 18:50:00,67.6,52.8,30.06,South,170,0.0,6.0,59,0.00,,---,0.00,VWS V13.01,2013-04-23 22:50:00,
2013-04-23 18:52:00,67.6,53.2,30.06,ESE,111,1.0,6.0,60,0.00,,---,0.00,VWS V13.01,2013-04-23 22:52:00,
2013-04-23 18:54:00,67.5,52.7,30.06,SE,141,2.0,6.0,59,0.00,,---,0.00,VWS V13.01,2013-04-23 22:54:00,
2013-04-23 18:55:00,67.6,52.8,30.06,South,175,2.0,6.0,59,0.00,,---,0.00,VWS V13.01,2013-04-23 22:55:00,
2013-04-23 18:56:00,67.5,52.7,30.06,SSE,164,0.0,6.0,59,0.00,,---,0.00,VWS V13.01,2013-04-23 22:56:00,
2013-04-23 18:58:00,67.4,52.6,30.06,SW,215,0.0,6.0,59,0.00,,---,0.00,VWS V13.01,2013-04-23 22:58:00,
2013-04-23 19:00:00,67.3,53.0,30.06,South,180,2.0,6.0,60,0.00,,---,0.00,VWS V13.01,2013-04-23 23:00:00,
2013-04-23 19:01:00,67.2,52.9,30.06,South,182,0.0,6.0,60,0.00,,---,0.00,VWS V13.01,2013-04-23 23:01:00,
2013-04-23 19:03:00,67.2,52.9,30.06,SSW,195,3.0,3.0,60,0.00,,---,0.00,VWS V13.01,2013-04-23 23:03:00,
2013-04-23 19:05:00,67.1,52.8,30.06,SW,217,0.0,4.0,60,0.00,,---,0.00,VWS V13.01,2013-04-23 23:05:00,
2013-04-23 19:06:00,67.0,52.7,30.06,SW,218,0.0,5.0,60,0.00,,---,0.00,VWS V13.01,2013-04-23 23:06:00,
2013-04-23 19:08:00,67.0,52.7,30.06,SSW,192,0.0,5.0,60,0.00,,---,0.00,VWS V13.01,2013-04-23 23:08:00,
2013-04-23 19:10:00,66.9,52.6,30.06,SSE,157,0.0,5.0,60,0.00,,---,0.00,VWS V13.01,2013-04-23 23:10:00,
2013-04-23 19:11:00,66.9,52.6,30.06,SSE,156,0.0,5.0,60,0.00,,---,0.00,VWS V13.01,2013-04-23 23:11:00,
2013-04-23 19:13:00,66.8,52.5,30.06,SSE,159,0.0,5.0,60,0.00,,---,0.00,VWS V13.01,2013-04-23 23:13:00,
2013-04-23 19:15:00,66.7,52.4,30.06,SSE,159,0.0,5.0,60,0.00,,---,0.00,VWS V13.01,2013-04-23 23:15:00,
2013-04-23 19:16:00,66.7,52.4,30.06,SSE,159,0.0,5.0,60,0.00,,---,0.00,VWS V13.01,2013-04-23 23:16:00,
2013-04-23 19:18:00,66.6,52.8,30.06,South,169,0.0,5.0,61,0.00,,---,0.00,VWS V13.01,2013-04-23 23:18:00,
2013-04-23 19:20:00,66.5,52.7,30.06,SSE,148,0.0,5.0,61,0.00,,---,0.00,VWS V13.01,2013-04-23 23:20:00,
2013-04-23 19:21:00,66.5,52.7,30.06,SSE,147,0.0,5.0,61,0.00,,---,0.00,VWS V13.01,2013-04-23 23:21:00,
2013-04-23 19:23:00,66.4,52.6,30.06,SSE,149,0.0,5.0,61,0.00,,---,0.00,VWS V13.01,2013-04-23 23:23:00,
2013-04-23 19:25:00,66.2,52.4,30.06,SSE,154,0.0,5.0,61,0.00,,---,0.00,VWS V13.01,2013-04-23 23:25:00,
2013-04-23 19:26:00,66.2,52.4,30.06,SSE,154,0.0,5.0,61,0.00,,---,0.00,VWS V13.01,2013-04-23 23:26:00,
2013-04-23 19:27:00,66.2,52.4,30.06,SSE,154,0.0,5.0,61,0.00,,---,0.00,VWS V13.01,2013-04-23 23:27:00,
2013-04-23 19:28:00,66.1,52.3,30.06,SSE,160,0.0,5.0,61,0.00,,---,0.00,VWS V13.01,2013-04-23 23:28:00,
2013-04-23 19:30:00,66.1,52.7,30.07,SSE,160,0.0,5.0,62,0.00,,---,0.00,VWS V13.01,2013-04-23 23:30:00,
2013-04-23 19:31:00,66.0,52.6,30.07,SSW,198,0.0,3.0,62,0.00,,---,0.00,VWS V13.01,2013-04-23 23:31:00,
2013-04-23 19:32:00,66.0,52.6,30.07,SSW,198,0.0,3.0,62,0.00,,---,0.00,VWS V13.01,2013-04-23 23:32:00,
2013-04-23 19:34:00,65.9,52.5,30.07,SSW,195,0.0,3.0,62,0.00,,---,0.00,VWS V13.01,2013-04-23 23:34:00,
2013-04-23 19:35:00,65.8,52.4,30.07,SSW,195,0.0,3.0,62,0.00,,---,0.00,VWS V13.01,2013-04-23 23:35:00,
2013-04-23 19:36:00,65.8,52.4,30.07,SSW,196,0.0,3.0,62,0.00,,---,0.00,VWS V13.01,2013-04-23 23:36:00,
2013-04-23 19:37:00,65.8,52.4,30.07,SSW,196,0.0,3.0,62,0.00,,---,0.00,VWS V13.01,2013-04-23 23:37:00,
2013-04-23 19:39:00,65.7,52.3,30.07,SSW,196,0.0,3.0,62,0.00,,---,0.00,VWS V13.01,2013-04-23 23:39:00,
2013-04-23 19:41:00,65.6,52.2,30.07,SSW,196,0.0,3.0,62,0.00,,---,0.00,VWS V13.01,2013-04-23 23:41:00,
2013-04-23 19:42:00,65.5,52.2,30.07,SSW,195,0.0,3.0,62,0.00,,---,0.00,VWS V13.01,2013-04-23 23:42:00,
2013-04-23 19:43:00,65.5,52.2,30.07,SSW,196,0.0,3.0,62,0.00,,---,0.00,VWS V13.01,2013-04-23 23:43:00,
2013-04-23 19:44:00,65.4,52.5,30.07,SSW,195,0.0,3.0,63,0.00,,---,0.00,VWS V13.01,2013-04-23 23:44:00,
2013-04-23 19:46:00,65.4,52.5,30.07,SSW,196,0.0,3.0,63,0.00,,---,0.00,VWS V13.01,2013-04-23 23:46:00,
2013-04-23 19:47:00,65.3,52.4,30.07,SSW,195,0.0,3.0,63,0.00,,---,0.00,VWS V13.01,2013-04-23 23:47:00,
2013-04-23 19:48:00,65.3,52.4,30.07,SSW,196,0.0,3.0,63,0.00,,---,0.00,VWS V13.01,2013-04-23 23:48:00,
2013-04-23 19:50:00,65.2,52.3,30.07,SSW,195,0.0,3.0,63,0.00,,---,0.00,VWS V13.01,2013-04-23 23:50:00,
2013-04-23 19:51:00,65.1,52.2,30.08,SSW,196,0.0,3.0,63,0.00,,---,0.00,VWS V13.01,2013-04-23 23:51:00,
2013-04-23 19:52:00,65.1,52.2,30.08,South,180,3.0,3.0,63,0.00,,---,0.00,VWS V13.01,2013-04-23 23:52:00,
2013-04-23 19:53:00,65.0,52.1,30.07,South,180,0.0,3.0,63,0.00,,---,0.00,VWS V13.01,2013-04-23 23:53:00,
2013-04-23 19:55:00,64.9,52.5,30.07,South,180,0.0,3.0,64,0.00,,---,0.00,VWS V13.01,2013-04-23 23:55:00,
2013-04-23 19:56:00,64.9,52.5,30.08,South,180,0.0,3.0,64,0.00,,---,0.00,VWS V13.01,2013-04-23 23:56:00,
2013-04-23 19:57:00,64.8,52.3,30.08,South,180,0.0,3.0,64,0.00,,---,0.00,VWS V13.01,2013-04-23 23:57:00,
2013-04-23 19:58:00,64.7,52.7,30.08,South,180,0.0,3.0,65,0.00,,---,0.00,VWS V13.01,2013-04-23 23:58:00,
2013-04-23 20:00:00,64.7,52.3,30.08,South,180,0.0,3.0,64,0.00,,---,0.00,VWS V13.01,2013-04-24 00:00:00,
2013-04-23 20:01:00,64.6,52.2,30.08,South,180,0.0,1.0,64,0.00,,---,0.00,VWS V13.01,2013-04-24 00:01:00,
2013-04-23 20:02:00,64.5,52.1,30.08,South,180,0.0,1.0,64,0.00,,---,0.00,VWS V13.01,2013-04-24 00:02:00,
2013-04-23 20:03:00,64.5,52.5,30.07,South,180,0.0,1.0,65,0.00,,---,0.00,VWS V13.01,2013-04-24 00:03:00,
2013-04-23 20:05:00,64.3,52.3,30.07,South,179,0.0,1.0,65,0.00,,---,0.00,VWS V13.01,2013-04-24 00:05:00,
2013-04-23 20:07:00,64.2,52.2,30.07,South,179,0.0,1.0,65,0.00,,---,0.00,VWS V13.01,2013-04-24 00:07:00,
2013-04-23 20:08:00,64.1,52.1,30.07,South,180,0.0,1.0,65,0.00,,---,0.00,VWS V13.01,2013-04-24 00:08:00,
2013-04-23 20:10:00,64.0,52.4,30.07,South,180,0.0,1.0,66,0.00,,---,0.00,VWS V13.01,2013-04-24 00:10:00,
2013-04-23 20:12:00,63.9,52.3,30.08,South,180,0.0,1.0,66,0.00,,---,0.00,VWS V13.01,2013-04-24 00:12:00,
2013-04-23 20:13:00,63.8,52.2,30.08,South,178,0.0,3.0,66,0.00,,---,0.00,VWS V13.01,2013-04-24 00:13:00,
2013-04-23 20:15:00,63.7,52.1,30.08,South,178,0.0,3.0,66,0.00,,---,0.00,VWS V13.01,2013-04-24 00:15:00,
2013-04-23 20:17:00,63.6,52.5,30.08,South,177,0.0,3.0,67,0.00,,---,0.00,VWS V13.01,2013-04-24 00:17:00,
2013-04-23 20:18:00,63.6,52.5,30.08,South,176,0.0,3.0,67,0.00,,---,0.00,VWS V13.01,2013-04-24 00:18:00,
2013-04-23 20:19:00,63.5,52.4,30.08,South,176,0.0,3.0,67,0.00,,---,0.00,VWS V13.01,2013-04-24 00:19:00,
2013-04-23 20:21:00,63.3,52.6,30.08,SSE,157,0.0,3.0,68,0.00,,---,0.00,VWS V13.01,2013-04-24 00:21:00,
2013-04-23 20:22:00,63.2,52.5,30.08,SSE,157,0.0,3.0,68,0.00,,---,0.00,VWS V13.01,2013-04-24 00:22:00,
2013-04-23 20:23:00,63.2,52.5,30.08,SSE,157,0.0,3.0,68,0.00,,---,0.00,VWS V13.01,2013-04-24 00:23:00,
2013-04-23 20:24:00,63.1,52.4,30.08,SSE,162,0.0,3.0,68,0.00,,---,0.00,VWS V13.01,2013-04-24 00:24:00,
2013-04-23 20:26:00,63.0,52.3,30.08,SSE,157,0.0,4.0,68,0.00,,---,0.00,VWS V13.01,2013-04-24 00:26:00,
2013-04-23 20:27:00,62.9,52.2,30.08,SSE,155,0.0,4.0,68,0.00,,---,0.00,VWS V13.01,2013-04-24 00:27:00,
2013-04-23 20:28:00,62.9,52.2,30.08,SSE,155,0.0,4.0,68,0.00,,---,0.00,VWS V13.01,2013-04-24 00:28:00,
2013-04-23 20:29:00,62.8,52.1,30.08,SSE,155,0.0,4.0,68,0.00,,---,0.00,VWS V13.01,2013-04-24 00:29:00,
2013-04-23 20:31:00,62.7,52.4,30.08,SSE,157,0.0,4.0,69,0.00,,---,0.00,VWS V13.01,2013-04-24 00:31:00,
2013-04-23 20:32:00,62.6,52.3,30.08,SSE,157,0.0,0.0,69,0.00,,---,0.00,VWS V13.01,2013-04-24 00:32:00,
2013-04-23 20:33:00,62.6,52.7,30.08,SSE,157,0.0,0.0,70,0.00,,---,0.00,VWS V13.01,2013-04-24 00:33:00,
2013-04-23 20:34:00,62.5,52.6,30.08,South,180,2.0,3.0,70,0.00,,---,0.00,VWS V13.01,2013-04-24 00:34:00,
2013-04-23 20:36:00,62.5,52.6,30.08,South,180,0.0,3.0,70,0.00,,---,0.00,VWS V13.01,2013-04-24 00:36:00,
2013-04-23 20:37:00,62.4,52.5,30.08,South,180,0.0,3.0,70,0.00,,---,0.00,VWS V13.01,2013-04-24 00:37:00,
2013-04-23 20:38:00,62.3,52.4,30.08,South,179,0.0,3.0,70,0.00,,---,0.00,VWS V13.01,2013-04-24 00:38:00,
2013-04-23 20:39:00,62.3,52.4,30.08,SE,146,2.0,3.0,70,0.00,,---,0.00,VWS V13.01,2013-04-24 00:39:00,
2013-04-23 20:41:00,62.2,52.7,30.08,SSE,147,0.0,3.0,71,0.00,,---,0.00,VWS V13.01,2013-04-24 00:41:00,
2013-04-23 20:42:00,62.1,52.6,30.08,SSE,147,0.0,3.0,71,0.00,,---,0.00,VWS V13.01,2013-04-24 00:42:00,
2013-04-23 20:43:00,62.1,52.6,30.08,SSE,147,0.0,3.0,71,0.00,,---,0.00,VWS V13.01,2013-04-24 00:43:00,
2013-04-23 20:44:00,62.0,52.5,30.08,SSE,147,0.0,3.0,71,0.00,,---,0.00,VWS V13.01,2013-04-24 00:44:00,
2013-04-23 20:46:00,61.9,52.4,30.08,SE,146,0.0,3.0,71,0.00,,---,0.00,VWS V13.01,2013-04-24 00:46:00,
2013-04-23 20:47:00,61.9,52.4,30.08,SSE,147,0.0,3.0,71,0.00,,---,0.00,VWS V13.01,2013-04-24 00:47:00,
2013-04-23 20:48:00,61.8,52.3,30.08,SE,146,0.0,3.0,71,0.00,,---,0.00,VWS V13.01,2013-04-24 00:48:00,
2013-04-23 20:49:00,61.8,52.3,30.09,SSE,147,0.0,3.0,71,0.00,,---,0.00,VWS V13.01,2013-04-24 00:49:00,
2013-04-23 20:51:00,61.7,52.6,30.09,SSE,150,0.0,3.0,72,0.00,,---,0.00,VWS V13.01,2013-04-24 00:51:00,
2013-04-23 20:52:00,61.6,52.5,30.09,SSE,153,1.0,3.0,72,0.00,,---,0.00,VWS V13.01,2013-04-24 00:52:00,
2013-04-23 20:53:00,61.6,52.5,30.09,SSE,153,0.0,3.0,72,0.00,,---,0.00,VWS V13.01,2013-04-24 00:53:00,
2013-04-23 20:54:00,61.5,52.4,30.09,SSE,157,0.0,3.0,72,0.00,,---,0.00,VWS V13.01,2013-04-24 00:54:00,
2013-04-23 20:56:00,61.4,52.3,30.09,SSE,157,0.0,3.0,72,0.00,,---,0.00,VWS V13.01,2013-04-24 00:56:00,
2013-04-23 20:57:00,61.4,52.7,30.09,SSE,157,0.0,3.0,73,0.00,,---,0.00,VWS V13.01,2013-04-24 00:57:00,
2013-04-23 20:58:00,61.3,52.6,30.08,SSE,157,0.0,3.0,73,0.00,,---,0.00,VWS V13.01,2013-04-24 00:58:00,
2013-04-23 21:00:00,61.3,52.6,30.08,SSE,157,0.0,3.0,73,0.00,,---,0.00,VWS V13.01,2013-04-24 01:00:00,
2013-04-23 21:01:00,61.2,52.5,30.08,SSE,156,0.0,0.0,73,0.00,,---,0.00,VWS V13.01,2013-04-24 01:01:00,
2013-04-23 21:03:00,61.1,52.4,30.08,SSE,156,0.0,0.0,73,0.00,,---,0.00,VWS V13.01,2013-04-24 01:03:00,
2013-04-23 21:04:00,61.1,52.4,30.08,SSE,156,0.0,0.0,73,0.00,,---,0.00,VWS V13.01,2013-04-24 01:04:00,
2013-04-23 21:05:00,61.0,52.3,30.08,SSE,156,0.0,1.0,73,0.00,,---,0.00,VWS V13.01,2013-04-24 01:05:00,
2013-04-23 21:06:00,60.9,52.2,30.08,SSE,156,0.0,1.0,73,0.00,,---,0.00,VWS V13.01,2013-04-24 01:06:00,
2013-04-23 21:08:00,60.9,52.2,30.08,SSE,156,0.0,1.0,73,0.00,,---,0.00,VWS V13.01,2013-04-24 01:08:00,
2013-04-23 21:09:00,60.9,52.2,30.08,SSE,156,0.0,1.0,73,0.00,,---,0.00,VWS V13.01,2013-04-24 01:09:00,
2013-04-23 21:10:00,60.8,52.1,30.08,SSE,156,0.0,1.0,73,0.00,,---,0.00,VWS V13.01,2013-04-24 01:10:00,
2013-04-23 21:12:00,60.7,52.0,30.08,SSE,155,0.0,2.0,73,0.00,,---,0.00,VWS V13.01,2013-04-24 01:12:00,
2013-04-23 21:13:00,60.7,52.4,30.09,SSE,155,1.0,2.0,74,0.00,,---,0.00,VWS V13.01,2013-04-24 01:13:00,
2013-04-23 21:14:00,60.6,52.3,30.09,SSE,155,0.0,2.0,74,0.00,,---,0.00,VWS V13.01,2013-04-24 01:14:00,
2013-04-23 21:15:00,60.6,52.3,30.09,SSE,156,0.0,3.0,74,0.00,,---,0.00,VWS V13.01,2013-04-24 01:15:00,
2013-04-23 21:17:00,60.5,52.2,30.09,SSE,156,0.0,3.0,74,0.00,,---,0.00,VWS V13.01,2013-04-24 01:17:00,
2013-04-23 21:18:00,60.4,52.1,30.09,SSE,155,0.0,3.0,74,0.00,,---,0.00,VWS V13.01,2013-04-24 01:18:00,
2013-04-23 21:19:00,60.4,52.1,30.09,SE,144,2.0,3.0,74,0.00,,---,0.00,VWS V13.01,2013-04-24 01:19:00,
2013-04-23 21:20:00,60.4,52.1,30.09,SE,144,0.0,3.0,74,0.00,,---,0.00,VWS V13.01,2013-04-24 01:20:00,
2013-04-23 21:22:00,60.3,52.0,30.09,SSE,151,0.0,4.0,74,0.00,,---,0.00,VWS V13.01,2013-04-24 01:22:00,
2013-04-23 21:23:00,60.2,52.3,30.09,SSE,151,0.0,4.0,75,0.00,,---,0.00,VWS V13.01,2013-04-24 01:23:00,
2013-04-23 21:24:00,60.2,52.3,30.09,SSE,151,0.0,4.0,75,0.00,,---,0.00,VWS V13.01,2013-04-24 01:24:00,
2013-04-23 21:25:00,60.1,52.2,30.09,SSE,152,0.0,4.0,75,0.00,,---,0.00,VWS V13.01,2013-04-24 01:25:00,
2013-04-23 21:27:00,60.0,52.1,30.09,SSE,153,0.0,4.0,75,0.00,,---,0.00,VWS V13.01,2013-04-24 01:27:00,
2013-04-23 21:29:00,59.9,52.0,30.09,SSE,153,0.0,4.0,75,0.00,,---,0.00,VWS V13.01,2013-04-24 01:29:00,
2013-04-23 21:30:00,59.9,52.3,30.09,SE,131,0.0,5.0,76,0.00,,---,0.00,VWS V13.01,2013-04-24 01:30:00,
2013-04-23 21:32:00,59.8,52.2,30.09,SSW,198,0.0,1.0,76,0.00,,---,0.00,VWS V13.01,2013-04-24 01:32:00,
2013-04-23 21:34:00,59.7,52.1,30.09,SSW,198,0.0,1.0,76,0.00,,---,0.00,VWS V13.01,2013-04-24 01:34:00,
2013-04-23 21:35:00,59.6,52.4,30.09,SSW,198,0.0,1.0,77,0.00,,---,0.00,VWS V13.01,2013-04-24 01:35:00,
2013-04-23 21:37:00,59.6,52.4,30.09,SSW,198,1.0,1.0,77,0.00,,---,0.00,VWS V13.01,2013-04-24 01:37:00,
2013-04-23 21:39:00,59.5,52.3,30.09,South,180,0.0,2.0,77,0.00,,---,0.00,VWS V13.01,2013-04-24 01:39:00,
2013-04-23 21:40:00,59.5,52.3,30.09,South,181,0.0,2.0,77,0.00,,---,0.00,VWS V13.01,2013-04-24 01:40:00,
2013-04-23 21:42:00,59.4,52.2,30.09,South,180,0.0,2.0,77,0.00,,---,0.00,VWS V13.01,2013-04-24 01:42:00,
2013-04-23 21:44:00,59.3,52.1,30.09,South,180,0.0,2.0,77,0.00,,---,0.00,VWS V13.01,2013-04-24 01:44:00,
2013-04-23 21:45:00,59.3,52.1,30.09,South,179,0.0,2.0,77,0.00,,---,0.00,VWS V13.01,2013-04-24 01:45:00,
2013-04-23 21:47:00,59.2,52.0,30.09,South,180,0.0,2.0,77,0.00,,---,0.00,VWS V13.01,2013-04-24 01:47:00,
2013-04-23 21:49:00,59.1,51.9,30.09,South,179,0.0,2.0,77,0.00,,---,0.00,VWS V13.01,2013-04-24 01:49:00,
2013-04-23 21:50:00,59.1,51.9,30.09,South,180,0.0,2.0,77,0.00,,---,0.00,VWS V13.01,2013-04-24 01:50:00,
2013-04-23 21:51:00,59.0,51.8,30.09,South,180,0.0,2.0,77,0.00,,---,0.00,VWS V13.01,2013-04-24 01:51:00,
2013-04-23 21:52:00,59.0,51.8,30.09,South,180,0.0,2.0,77,0.00,,---,0.00,VWS V13.01,2013-04-24 01:52:00,
2013-04-23 21:54:00,59.0,52.2,30.09,South,188,0.0,2.0,78,0.00,,---,0.00,VWS V13.01,2013-04-24 01:54:00,
2013-04-23 21:55:00,59.0,52.2,30.09,South,188,0.0,2.0,78,0.00,,---,0.00,VWS V13.01,2013-04-24 01:55:00,
2013-04-23 21:56:00,59.0,52.2,30.09,South,188,0.0,2.0,78,0.00,,---,0.00,VWS V13.01,2013-04-24 01:56:00,
2013-04-23 21:57:00,59.0,52.2,30.09,SE,141,0.0,2.0,78,0.00,,---,0.00,VWS V13.01,2013-04-24 01:57:00,
2013-04-23 21:59:00,59.0,52.5,30.09,SSE,156,0.0,4.0,79,0.00,,---,0.00,VWS V13.01,2013-04-24 01:59:00,
2013-04-23 22:00:00,59.0,52.5,30.09,SSE,156,0.0,4.0,79,0.00,,---,0.00,VWS V13.01,2013-04-24 02:00:00,
2013-04-23 22:01:00,59.0,52.5,30.09,South,173,0.0,4.0,79,0.00,,---,0.00,VWS V13.01,2013-04-24 02:01:00,
2013-04-23 22:02:00,59.0,52.5,30.09,South,169,0.0,4.0,79,0.00,,---,0.00,VWS V13.01,2013-04-24 02:02:00,
2013-04-23 22:04:00,58.8,52.3,30.09,SSE,168,0.0,4.0,79,0.00,,---,0.00,VWS V13.01,2013-04-24 02:04:00,
2013-04-23 22:05:00,58.8,52.3,30.09,SSE,168,0.0,4.0,79,0.00,,---,0.00,VWS V13.01,2013-04-24 02:05:00,
2013-04-23 22:06:00,58.8,52.3,30.09,SSE,161,0.0,4.0,79,0.00,,---,0.00,VWS V13.01,2013-04-24 02:06:00,
2013-04-23 22:08:00,58.7,52.2,30.08,South,182,0.0,5.0,79,0.00,,---,0.00,VWS V13.01,2013-04-24 02:08:00,
2013-04-23 22:10:00,58.7,52.6,30.08,SE,127,3.0,5.0,80,0.00,,---,0.00,VWS V13.01,2013-04-24 02:10:00,
2013-04-23 22:11:00,58.7,52.6,30.09,South,185,0.0,5.0,80,0.00,,---,0.00,VWS V13.01,2013-04-24 02:11:00,
2013-04-23 22:12:00,58.6,52.5,30.09,South,175,0.0,5.0,80,0.00,,---,0.00,VWS V13.01,2013-04-24 02:12:00,
2013-04-23 22:13:00,58.6,52.5,30.09,SSW,198,4.0,5.0,80,0.00,,---,0.00,VWS V13.01,2013-04-24 02:13:00,
2013-04-23 22:15:00,58.6,52.5,30.09,SSW,192,0.0,5.0,80,0.00,,---,0.00,VWS V13.01,2013-04-24 02:15:00,
2013-04-23 22:16:00,58.6,52.8,30.09,SSW,192,0.0,5.0,81,0.00,,---,0.00,VWS V13.01,2013-04-24 02:16:00,
2013-04-23 22:17:00,58.6,52.5,30.09,SSW,193,0.0,5.0,80,0.00,,---,0.00,VWS V13.01,2013-04-24 02:17:00,
2013-04-23 22:18:00,58.6,52.8,30.08,SE,146,0.0,5.0,81,0.00,,---,0.00,VWS V13.01,2013-04-24 02:18:00,
2013-04-23 22:20:00,58.6,52.8,30.08,SSE,150,0.0,5.0,81,0.00,,---,0.00,VWS V13.01,2013-04-24 02:20:00,
2013-04-23 22:21:00,58.5,52.7,30.08,SE,137,2.0,5.0,81,0.00,,---,0.00,VWS V13.01,2013-04-24 02:21:00,
2013-04-23 22:23:00,58.5,52.7,30.08,SSE,147,0.0,5.0,81,0.00,,---,0.00,VWS V13.01,2013-04-24 02:23:00,
2013-04-23 22:25:00,58.5,52.7,30.08,South,181,0.0,5.0,81,0.00,,---,0.00,VWS V13.01,2013-04-24 02:25:00,
2013-04-23 22:26:00,58.5,52.7,30.08,South,172,2.0,5.0,81,0.00,,---,0.00,VWS V13.01,2013-04-24 02:26:00,
2013-04-23 22:28:00,58.5,52.7,30.08,South,171,0.0,5.0,81,0.00,,---,0.00,VWS V13.01,2013-04-24 02:28:00,
2013-04-23 22:29:00,58.5,52.7,30.08,South,170,0.0,5.0,81,0.00,,---,0.00,VWS V13.01,2013-04-24 02:29:00,
2013-04-23 22:30:00,58.5,52.7,30.08,SE,141,2.0,5.0,81,0.00,,---,0.00,VWS V13.01,2013-04-24 02:30:00,
2013-04-23 22:32:00,58.5,52.7,30.08,SSE,164,2.0,3.0,81,0.00,,---,0.00,VWS V13.01,2013-04-24 02:32:00,
2013-04-23 22:34:00,58.5,52.7,30.08,SE,146,0.0,11.0,81,0.00,,---,0.00,VWS V13.01,2013-04-24 02:34:00,
2013-04-23 22:37:00,58.5,52.7,30.08,SSW,192,0.0,11.0,81,0.00,,---,0.00,VWS V13.01,2013-04-24 02:37:00,
2013-04-23 22:39:00,58.5,52.7,30.08,South,171,0.0,11.0,81,0.00,,---,0.00,VWS V13.01,2013-04-24 02:39:00,
2013-04-23 22:42:00,58.5,52.7,30.08,SSE,159,0.0,11.0,81,0.00,,---,0.00,VWS V13.01,2013-04-24 02:42:00,
2013-04-23 22:43:00,58.5,52.7,30.08,SSE,159,0.0,11.0,81,0.00,,---,0.00,VWS V13.01,2013-04-24 02:43:00,
2013-04-23 22:44:00,58.5,52.7,30.08,SSE,159,0.0,11.0,81,0.00,,---,0.00,VWS V13.01,2013-04-24 02:44:00,
2013-04-23 22:48:00,58.4,52.6,30.09,South,183,2.0,11.0,81,0.00,,---,0.00,VWS V13.01,2013-04-24 02:48:00,
2013-04-23 22:49:00,58.5,53.0,30.09,SSW,207,0.0,11.0,82,0.00,,---,0.00,VWS V13.01,2013-04-24 02:49:00,
2013-04-23 22:51:00,58.5,53.0,30.09,SSW,201,0.0,11.0,82,0.00,,---,0.00,VWS V13.01,2013-04-24 02:51:00,
2013-04-23 22:53:00,58.4,52.9,30.09,SSW,197,0.0,11.0,82,0.00,,---,0.00,VWS V13.01,2013-04-24 02:53:00,
2013-04-23 22:55:00,58.4,52.9,30.09,SSW,197,0.0,11.0,82,0.00,,---,0.00,VWS V13.01,2013-04-24 02:55:00,
2013-04-23 22:56:00,58.4,52.9,30.09,SSW,192,3.0,11.0,82,0.00,,---,0.00,VWS V13.01,2013-04-24 02:56:00,
2013-04-23 23:00:00,58.4,52.9,30.09,SSW,205,0.0,11.0,82,0.00,,---,0.00,VWS V13.01,2013-04-24 03:00:00,
2013-04-23 23:01:00,58.4,52.9,30.09,SSW,205,0.0,0.0,82,0.00,,---,0.00,VWS V13.01,2013-04-24 03:01:00,
2013-04-23 23:05:00,58.4,52.9,30.09,SSW,209,0.0,3.0,82,0.00,,---,0.00,VWS V13.01,2013-04-24 03:05:00,
2013-04-23 23:07:00,58.4,52.9,30.09,SSW,196,0.0,3.0,82,0.00,,---,0.00,VWS V13.01,2013-04-24 03:07:00,
2013-04-23 23:10:00,58.3,52.8,30.09,SSW,205,0.0,10.0,82,0.00,,---,0.00,VWS V13.01,2013-04-24 03:10:00,
2013-04-23 23:11:00,58.3,52.8,30.08,SSE,163,3.0,10.0,82,0.00,,---,0.00,VWS V13.01,2013-04-24 03:11:00,
2013-04-23 23:12:00,58.3,52.8,30.08,SSE,163,0.0,10.0,82,0.00,,---,0.00,VWS V13.01,2013-04-24 03:12:00,
2013-04-23 23:17:00,58.2,52.7,30.08,South,176,0.0,10.0,82,0.00,,---,0.00,VWS V13.01,2013-04-24 03:17:00,
2013-04-23 23:22:00,58.1,52.6,30.08,South,175,0.0,10.0,82,0.00,,---,0.00,VWS V13.01,2013-04-24 03:22:00,
2013-04-23 23:23:00,58.1,52.6,30.08,South,186,0.0,10.0,82,0.00,,---,0.00,VWS V13.01,2013-04-24 03:23:00,
2013-04-23 23:27:00,58.0,52.9,30.08,South,190,0.0,10.0,83,0.00,,---,0.00,VWS V13.01,2013-04-24 03:27:00,
2013-04-23 23:28:00,58.0,52.9,30.08,SW,218,0.0,10.0,83,0.00,,---,0.00,VWS V13.01,2013-04-24 03:28:00,
2013-04-23 23:29:00,58.0,52.9,30.08,SSW,209,0.0,10.0,83,0.00,,---,0.00,VWS V13.01,2013-04-24 03:29:00,
2013-04-23 23:30:00,58.0,52.9,30.08,SSW,209,0.0,10.0,83,0.00,,---,0.00,VWS V13.01,2013-04-24 03:30:00,
2013-04-23 23:32:00,57.9,52.8,30.08,SSW,210,0.0,2.0,83,0.00,,---,0.00,VWS V13.01,2013-04-24 03:32:00,
2013-04-23 23:34:00,57.9,52.8,30.08,SSW,211,0.0,2.0,83,0.00,,---,0.00,VWS V13.01,2013-04-24 03:34:00,
2013-04-23 23:36:00,57.9,52.8,30.08,SSW,210,0.0,2.0,83,0.00,,---,0.00,VWS V13.01,2013-04-24 03:36:00,
2013-04-23 23:38:00,57.8,52.7,30.08,SSW,210,0.0,2.0,83,0.00,,---,0.00,VWS V13.01,2013-04-24 03:38:00,
2013-04-23 23:39:00,57.8,52.7,30.08,SSW,210,0.0,2.0,83,0.00,,---,0.00,VWS V13.01,2013-04-24 03:39:00,
2013-04-23 23:41:00,57.7,52.6,30.08,SSW,210,0.0,2.0,83,0.00,,---,0.00,VWS V13.01,2013-04-24 03:41:00,
2013-04-23 23:43:00,57.7,52.6,30.08,SSW,211,0.0,2.0,83,0.00,,---,0.00,VWS V13.01,2013-04-24 03:43:00,
2013-04-23 23:44:00,57.7,52.6,30.08,SSW,210,0.0,2.0,83,0.00,,---,0.00,VWS V13.01,2013-04-24 03:44:00,
2013-04-23 23:45:00,57.7,52.6,30.08,SSW,210,0.0,2.0,83,0.00,,---,0.00,VWS V13.01,2013-04-24 03:45:00,
2013-04-23 23:46:00,57.6,52.5,30.08,SSW,210,0.0,2.0,83,0.00,,---,0.00,VWS V13.01,2013-04-24 03:46:00,
2013-04-23 23:49:00,57.6,52.5,30.08,SSW,211,0.0,2.0,83,0.00,,---,0.00,VWS V13.01,2013-04-24 03:49:00,
2013-04-23 23:51:00,57.5,52.4,30.08,SSW,201,0.0,3.0,83,0.00,,---,0.00,VWS V13.01,2013-04-24 03:51:00,
2013-04-23 23:52:00,57.5,52.4,30.08,SSW,201,0.0,3.0,83,0.00,,---,0.00,VWS V13.01,2013-04-24 03:52:00,
2013-04-23 23:55:00,57.4,52.3,30.08,SSW,201,0.0,3.0,83,0.00,,---,0.00,VWS V13.01,2013-04-24 03:55:00,
2013-04-23 23:56:00,57.3,52.2,30.08,South,191,0.0,3.0,83,0.00,,---,0.00,VWS V13.01,2013-04-24 03:56:00,
2013-04-23 23:57:00,57.3,52.2,30.08,South,191,0.0,3.0,83,0.00,,---,0.00,VWS V13.01,2013-04-24 03:57:00,
2013-04-23 23:58:00,57.3,52.2,30.08,South,191,0.0,3.0,83,0.00,,---,0.00,VWS V13.01,2013-04-24 03:58:00,